Time,TemperatureF,DewpointF,PressureIn,WindDirection,WindDirectionDegrees,WindSpeedMPH,WindSpeedGustMPH,Humidity,HourlyPrecipIn,Conditions,Clouds,dailyrainin,SoftwareType,DateUTC
2013-09-06 00:01:00,54.2,50.4,30.18,NNE,32,0.0,1.0,87,0.00,,,0.00,WUHU216DAVISVP2,2013-09-06 04:01:00,
2013-09-06 00:02:00,54.3,50.5,30.18,NNE,32,1.0,1.0,87,0.00,,,0.00,WUHU216DAVISVP2,2013-09-06 04:02:00,
2013-09-06 00:03:00,54.3,50.5,30.18,NNE,32,0.0,1.0,87,0.00,,,0.00,WUHU216DAVISVP2,2013-09-06 04:03:00,
2013-09-06 00:06:00,54.4,50.3,30.18,NNE,32,0.0,1.0,86,0.00,,,0.00,WUHU216DAVISVP2,2013-09-06 04:06:00,
2013-09-06 00:08:00,54.4,50.3,30.18,NNE,30,0.0,1.0,86,0.00,,,0.00,WUHU216DAVISVP2,2013-09-06 04:08:00,
2013-09-06 00:10:00,54.5,51.3,30.18,NNE,32,1.0,1.0,89,0.00,,,0.00,WUHU216DAVISVP2,2013-09-06 04:10:00,
2013-09-06 00:13:00,54.6,50.5,30.18,NE,34,0.0,3.0,86,0.00,,,0.00,WUHU216DAVISVP2,2013-09-06 04:13:00,
2013-09-06 00:14:00,54.7,50.6,30.18,NE,39,0.0,3.0,86,0.00,,,0.00,WUHU216DAVISVP2,2013-09-06 04:14:00,
2013-09-06 00:15:00,54.8,50.7,30.18,NE,39,0.0,3.0,86,0.00,,,0.00,WUHU216DAVISVP2,2013-09-06 04:15:00,
2013-09-06 00:18:00,54.8,50.4,30.18,ENE,71,0.0,3.0,85,0.00,,,0.00,WUHU216DAVISVP2,2013-09-06 04:18:00,
2013-09-06 00:19:00,54.9,50.5,30.18,ENE,71,0.0,3.0,85,0.00,,,0.00,WUHU216DAVISVP2,2013-09-06 04:19:00,
2013-09-06 00:21:00,55.0,50.6,30.18,East,96,0.0,2.0,85,0.00,,,0.00,WUHU216DAVISVP2,2013-09-06 04:21:00,
2013-09-06 00:22:00,55.0,50.6,30.18,East,96,0.0,2.0,85,0.00,,,0.00,WUHU216DAVISVP2,2013-09-06 04:22:00,
2013-09-06 00:23:00,55.0,50.6,30.18,East,96,0.0,2.0,85,0.00,,,0.00,WUHU216DAVISVP2,2013-09-06 04:23:00,
2013-09-06 00:24:00,55.0,50.6,30.18,ENE,61,1.0,2.0,85,0.00,,,0.00,WUHU216DAVISVP2,2013-09-06 04:24:00,
2013-09-06 00:26:00,55.1,50.7,30.18,ESE,118,0.0,2.0,85,0.00,,,0.00,WUHU216DAVISVP2,2013-09-06 04:26:00,
2013-09-06 00:27:00,55.0,50.6,30.18,ESE,105,0.0,2.0,85,0.00,,,0.00,WUHU216DAVISVP2,2013-09-06 04:27:00,
2013-09-06 00:28:00,55.0,50.6,30.18,ESE,105,0.0,2.0,85,0.00,,,0.00,WUHU216DAVISVP2,2013-09-06 04:28:00,
2013-09-06 00:29:00,55.0,50.6,30.18,ESE,105,0.0,2.0,85,0.00,,,0.00,WUHU216DAVISVP2,2013-09-06 04:29:00,
2013-09-06 00:31:00,55.0,50.6,30.18,ESE,105,0.0,2.0,85,0.00,,,0.00,WUHU216DAVISVP2,2013-09-06 04:31:00,
2013-09-06 00:33:00,55.0,50.6,30.18,SE,129,0.0,2.0,85,0.00,,,0.00,WUHU216DAVISVP2,2013-09-06 04:33:00,
2013-09-06 00:34:00,55.0,50.6,30.18,ENE,68,1.0,2.0,85,0.00,,,0.00,WUHU216DAVISVP2,2013-09-06 04:34:00,
2013-09-06 00:37:00,55.0,50.6,30.18,ENE,58,0.0,2.0,85,0.00,,,0.00,WUHU216DAVISVP2,2013-09-06 04:37:00,
2013-09-06 00:39:00,54.9,50.5,30.18,ENE,59,0.0,2.0,85,0.00,,,0.00,WUHU216DAVISVP2,2013-09-06 04:39:00,
2013-09-06 00:40:00,54.9,50.5,30.18,ENE,59,0.0,2.0,85,0.00,,,0.00,WUHU216DAVISVP2,2013-09-06 04:40:00,
2013-09-06 00:42:00,54.9,50.5,30.18,ENE,58,0.0,2.0,85,0.00,,,0.00,WUHU216DAVISVP2,2013-09-06 04:42:00,
2013-09-06 00:44:00,54.9,50.5,30.18,ENE,58,0.0,2.0,85,0.00,,,0.00,WUHU216DAVISVP2,2013-09-06 04:44:00,
2013-09-06 00:45:00,54.9,50.5,30.18,ENE,77,0.0,2.0,85,0.00,,,0.00,WUHU216DAVISVP2,2013-09-06 04:45:00,
2013-09-06 00:47:00,54.8,50.4,30.19,ENE,77,0.0,2.0,85,0.00,,,0.00,WUHU216DAVISVP2,2013-09-06 04:47:00,
2013-09-06 00:48:00,54.8,50.4,30.18,ENE,71,0.0,2.0,85,0.00,,,0.00,WUHU216DAVISVP2,2013-09-06 04:48:00,
2013-09-06 00:49:00,54.8,50.4,30.18,ENE,71,0.0,2.0,85,0.00,,,0.00,WUHU216DAVISVP2,2013-09-06 04:49:00,
2013-09-06 00:51:00,54.8,50.4,30.19,ENE,66,0.0,2.0,85,0.00,,,0.00,WUHU216DAVISVP2,2013-09-06 04:51:00,
2013-09-06 00:54:00,54.8,50.4,30.19,East,95,0.0,2.0,85,0.00,,,0.00,WUHU216DAVISVP2,2013-09-06 04:54:00,
2013-09-06 00:59:00,54.6,50.2,30.19,East,100,0.0,2.0,85,0.00,,,0.00,WUHU216DAVISVP2,2013-09-06 04:59:00,
2013-09-06 01:00:00,54.6,50.2,30.19,East,93,2.0,2.0,85,0.00,,,0.00,WUHU216DAVISVP2,2013-09-06 05:00:00,
2013-09-06 01:02:00,54.5,50.1,30.19,East,93,0.0,2.0,85,0.00,,,0.00,WUHU216DAVISVP2,2013-09-06 05:02:00,
2013-09-06 01:03:00,54.5,50.1,30.19,East,93,0.0,2.0,85,0.00,,,0.00,WUHU216DAVISVP2,2013-09-06 05:03:00,
2013-09-06 01:05:00,54.5,50.1,30.19,East,93,0.0,2.0,85,0.00,,,0.00,WUHU216DAVISVP2,2013-09-06 05:05:00,
2013-09-06 01:08:00,54.3,49.9,30.19,East,82,0.0,2.0,85,0.00,,,0.00,WUHU216DAVISVP2,2013-09-06 05:08:00,
2013-09-06 01:09:00,54.3,49.9,30.19,East,83,0.0,2.0,85,0.00,,,0.00,WUHU216DAVISVP2,2013-09-06 05:09:00,
2013-09-06 01:10:00,54.3,49.9,30.19,East,83,0.0,2.0,85,0.00,,,0.00,WUHU216DAVISVP2,2013-09-06 05:10:00,
2013-09-06 01:11:00,54.2,49.8,30.19,East,83,0.0,3.0,85,0.00,,,0.00,WUHU216DAVISVP2,2013-09-06 05:11:00,
2013-09-06 01:12:00,54.1,49.7,30.19,East,83,0.0,3.0,85,0.00,,,0.00,WUHU216DAVISVP2,2013-09-06 05:12:00,
2013-09-06 01:14:00,54.1,49.7,30.19,East,82,0.0,3.0,85,0.00,,,0.00,WUHU216DAVISVP2,2013-09-06 05:14:00,
2013-09-06 01:15:00,54.1,49.7,30.19,East,82,0.0,3.0,85,0.00,,,0.00,WUHU216DAVISVP2,2013-09-06 05:15:00,
2013-09-06 01:16:00,54.0,49.6,30.19,ENE,72,0.0,3.0,85,0.00,,,0.00,WUHU216DAVISVP2,2013-09-06 05:16:00,
2013-09-06 01:17:00,54.0,49.6,30.19,ENE,72,0.0,3.0,85,0.00,,,0.00,WUHU216DAVISVP2,2013-09-06 05:17:00,
2013-09-06 01:19:00,54.0,49.6,30.19,ENE,72,0.0,3.0,85,0.00,,,0.00,WUHU216DAVISVP2,2013-09-06 05:19:00,
2013-09-06 01:20:00,54.0,49.6,30.19,ENE,72,0.0,3.0,85,0.00,,,0.00,WUHU216DAVISVP2,2013-09-06 05:20:00,
2013-09-06 01:21:00,53.9,49.8,30.19,East,82,0.0,2.0,86,0.00,,,0.00,WUHU216DAVISVP2,2013-09-06 05:21:00,
2013-09-06 01:23:00,53.9,49.8,30.19,East,82,0.0,2.0,86,0.00,,,0.00,WUHU216DAVISVP2,2013-09-06 05:23:00,
2013-09-06 01:25:00,53.8,49.7,30.19,East,82,0.0,2.0,86,0.00,,,0.00,WUHU216DAVISVP2,2013-09-06 05:25:00,
2013-09-06 01:26:00,53.8,49.7,30.19,SSE,154,0.0,1.0,86,0.00,,,0.00,WUHU216DAVISVP2,2013-09-06 05:26:00,
2013-09-06 01:30:00,53.8,49.7,30.19,SSE,154,0.0,1.0,86,0.00,,,0.00,WUHU216DAVISVP2,2013-09-06 05:30:00,
2013-09-06 01:31:00,53.8,49.7,30.19,SSE,154,0.0,1.0,86,0.00,,,0.00,WUHU216DAVISVP2,2013-09-06 05:31:00,
2013-09-06 01:32:00,53.7,49.6,30.19,SSE,154,0.0,1.0,86,0.00,,,0.00,WUHU216DAVISVP2,2013-09-06 05:32:00,
2013-09-06 01:34:00,53.6,49.5,30.19,SSE,154,0.0,1.0,86,0.00,,,0.00,WUHU216DAVISVP2,2013-09-06 05:34:00,
2013-09-06 01:36:00,53.6,49.5,30.19,SSE,154,0.0,1.0,86,0.00,,,0.00,WUHU216DAVISVP2,2013-09-06 05:36:00,
2013-09-06 01:39:00,53.5,49.4,30.19,SSE,154,0.0,1.0,86,0.00,,,0.00,WUHU216DAVISVP2,2013-09-06 05:39:00,
2013-09-06 01:41:00,53.5,49.4,30.19,SSE,154,0.0,1.0,86,0.00,,,0.00,WUHU216DAVISVP2,2013-09-06 05:41:00,
2013-09-06 01:42:00,53.4,49.3,30.19,SSE,154,0.0,1.0,86,0.00,,,0.00,WUHU216DAVISVP2,2013-09-06 05:42:00,
2013-09-06 01:43:00,53.4,49.3,30.19,SSE,154,0.0,1.0,86,0.00,,,0.00,WUHU216DAVISVP2,2013-09-06 05:43:00,
2013-09-06 01:45:00,53.4,49.3,30.19,SSE,154,0.0,1.0,86,0.00,,,0.00,WUHU216DAVISVP2,2013-09-06 05:45:00,
2013-09-06 01:46:00,53.4,49.3,30.19,SSE,154,0.0,1.0,86,0.00,,,0.00,WUHU216DAVISVP2,2013-09-06 05:46:00,
2013-09-06 01:48:00,53.3,49.2,30.19,SSE,154,0.0,1.0,86,0.00,,,0.00,WUHU216DAVISVP2,2013-09-06 05:48:00,
2013-09-06 01:50:00,53.3,49.2,30.19,SSE,154,0.0,1.0,86,0.00,,,0.00,WUHU216DAVISVP2,2013-09-06 05:50:00,
2013-09-06 01:51:00,53.3,49.2,30.19,SSE,154,0.0,1.0,86,0.00,,,0.00,WUHU216DAVISVP2,2013-09-06 05:51:00,
2013-09-06 01:54:00,53.2,49.1,30.19,SSE,154,0.0,1.0,86,0.00,,,0.00,WUHU216DAVISVP2,2013-09-06 05:54:00,
2013-09-06 01:56:00,53.1,49.0,30.19,SSE,154,0.0,1.0,86,0.00,,,0.00,WUHU216DAVISVP2,2013-09-06 05:56:00,
2013-09-06 01:58:00,53.0,49.2,30.20,SSE,154,0.0,0.0,87,0.00,,,0.00,WUHU216DAVISVP2,2013-09-06 05:58:00,
2013-09-06 01:59:00,53.0,49.2,30.19,SSE,154,0.0,0.0,87,0.00,,,0.00,WUHU216DAVISVP2,2013-09-06 05:59:00,
2013-09-06 02:01:00,52.9,49.1,30.19,SSE,154,0.0,0.0,87,0.00,,,0.00,WUHU216DAVISVP2,2013-09-06 06:01:00,
2013-09-06 02:02:00,52.9,49.1,30.19,SSE,154,0.0,0.0,87,0.00,,,0.00,WUHU216DAVISVP2,2013-09-06 06:02:00,
2013-09-06 02:04:00,52.8,49.0,30.19,SSE,154,0.0,0.0,87,0.00,,,0.00,WUHU216DAVISVP2,2013-09-06 06:04:00,
2013-09-06 02:05:00,52.8,49.0,30.19,SSE,154,0.0,0.0,87,0.00,,,0.00,WUHU216DAVISVP2,2013-09-06 06:05:00,
2013-09-06 02:06:00,52.8,49.0,30.19,SSE,154,0.0,0.0,87,0.00,,,0.00,WUHU216DAVISVP2,2013-09-06 06:06:00,
2013-09-06 02:09:00,52.7,48.9,30.19,SSE,154,0.0,0.0,87,0.00,,,0.00,WUHU216DAVISVP2,2013-09-06 06:09:00,
2013-09-06 02:11:00,52.6,48.8,30.19,SSE,154,0.0,0.0,87,0.00,,,0.00,WUHU216DAVISVP2,2013-09-06 06:11:00,
2013-09-06 02:12:00,52.5,48.7,30.19,SSE,154,0.0,0.0,87,0.00,,,0.00,WUHU216DAVISVP2,2013-09-06 06:12:00,
2013-09-06 02:16:00,52.4,48.9,30.19,SSE,154,0.0,0.0,88,0.00,,,0.00,WUHU216DAVISVP2,2013-09-06 06:16:00,
2013-09-06 02:18:00,52.3,48.9,30.19,SSE,154,0.0,0.0,88,0.00,,,0.00,WUHU216DAVISVP2,2013-09-06 06:18:00,
2013-09-06 02:21:00,52.2,48.8,30.19,SSE,154,0.0,0.0,88,0.00,,,0.00,WUHU216DAVISVP2,2013-09-06 06:21:00,
2013-09-06 02:23:00,52.1,48.7,30.19,SSE,154,0.0,0.0,88,0.00,,,0.00,WUHU216DAVISVP2,2013-09-06 06:23:00,
2013-09-06 02:26:00,52.0,48.6,30.18,SSE,154,0.0,0.0,88,0.00,,,0.00,WUHU216DAVISVP2,2013-09-06 06:26:00,
2013-09-06 02:27:00,52.0,48.6,30.19,SSE,154,0.0,0.0,88,0.00,,,0.00,WUHU216DAVISVP2,2013-09-06 06:27:00,
2013-09-06 02:28:00,51.9,48.5,30.19,SSE,154,0.0,0.0,88,0.00,,,0.00,WUHU216DAVISVP2,2013-09-06 06:28:00,
2013-09-06 02:30:00,51.9,48.8,30.18,SSE,154,0.0,0.0,89,0.00,,,0.00,WUHU216DAVISVP2,2013-09-06 06:30:00,
2013-09-06 02:32:00,51.8,48.7,30.19,SSE,154,0.0,0.0,89,0.00,,,0.00,WUHU216DAVISVP2,2013-09-06 06:32:00,
2013-09-06 02:33:00,51.8,48.7,30.19,SSE,154,0.0,0.0,89,0.00,,,0.00,WUHU216DAVISVP2,2013-09-06 06:33:00,
2013-09-06 02:35:00,51.7,48.6,30.19,SSE,154,0.0,0.0,89,0.00,,,0.00,WUHU216DAVISVP2,2013-09-06 06:35:00,
2013-09-06 02:37:00,51.7,48.6,30.19,SSE,154,0.0,0.0,89,0.00,,,0.00,WUHU216DAVISVP2,2013-09-06 06:37:00,
2013-09-06 02:39:00,51.6,48.5,30.19,SSE,154,0.0,0.0,89,0.00,,,0.00,WUHU216DAVISVP2,2013-09-06 06:39:00,
2013-09-06 02:40:00,51.5,48.4,30.19,SSE,154,0.0,0.0,89,0.00,,,0.00,WUHU216DAVISVP2,2013-09-06 06:40:00,
2013-09-06 02:42:00,51.5,48.4,30.19,SSE,154,0.0,0.0,89,0.00,,,0.00,WUHU216DAVISVP2,2013-09-06 06:42:00,
2013-09-06 02:45:00,51.4,48.3,30.19,SSE,154,0.0,0.0,89,0.00,,,0.00,WUHU216DAVISVP2,2013-09-06 06:45:00,
2013-09-06 02:46:00,51.3,48.2,30.19,SSE,154,0.0,0.0,89,0.00,,,0.00,WUHU216DAVISVP2,2013-09-06 06:46:00,
2013-09-06 02:47:00,51.3,48.2,30.19,SSE,154,0.0,0.0,89,0.00,,,0.00,WUHU216DAVISVP2,2013-09-06 06:47:00,
2013-09-06 02:48:00,51.3,48.4,30.19,SSE,154,0.0,0.0,90,0.00,,,0.00,WUHU216DAVISVP2,2013-09-06 06:48:00,
2013-09-06 02:49:00,51.2,48.3,30.19,SSE,154,0.0,0.0,90,0.00,,,0.00,WUHU216DAVISVP2,2013-09-06 06:49:00,
2013-09-06 02:51:00,51.2,48.3,30.19,SSE,154,0.0,0.0,90,0.00,,,0.00,WUHU216DAVISVP2,2013-09-06 06:51:00,
2013-09-06 02:52:00,51.2,48.3,30.19,SSE,154,0.0,0.0,90,0.00,,,0.00,WUHU216DAVISVP2,2013-09-06 06:52:00,
2013-09-06 02:54:00,51.1,48.2,30.19,SSE,154,0.0,0.0,90,0.00,,,0.00,WUHU216DAVISVP2,2013-09-06 06:54:00,
2013-09-06 02:57:00,51.0,48.1,30.19,SSE,154,0.0,0.0,90,0.00,,,0.00,WUHU216DAVISVP2,2013-09-06 06:57:00,
2013-09-06 02:58:00,51.0,48.1,30.19,SSE,154,0.0,0.0,90,0.00,,,0.00,WUHU216DAVISVP2,2013-09-06 06:58:00,
2013-09-06 02:59:00,50.9,48.0,30.19,SSE,154,0.0,0.0,90,0.00,,,0.00,WUHU216DAVISVP2,2013-09-06 06:59:00,
2013-09-06 03:02:00,50.9,48.0,30.19,SSE,154,0.0,0.0,90,0.00,,,0.00,WUHU216DAVISVP2,2013-09-06 07:02:00,
2013-09-06 03:04:00,50.8,47.9,30.20,SSE,154,0.0,0.0,90,0.00,,,0.00,WUHU216DAVISVP2,2013-09-06 07:04:00,
2013-09-06 03:06:00,50.8,47.9,30.20,SSE,154,0.0,0.0,90,0.00,,,0.00,WUHU216DAVISVP2,2013-09-06 07:06:00,
2013-09-06 03:07:00,50.8,47.9,30.20,SSE,154,0.0,0.0,90,0.00,,,0.00,WUHU216DAVISVP2,2013-09-06 07:07:00,
2013-09-06 03:11:00,50.6,48.0,30.20,SSE,154,0.0,0.0,91,0.00,,,0.00,WUHU216DAVISVP2,2013-09-06 07:11:00,
2013-09-06 03:12:00,50.5,47.9,30.20,SSE,154,0.0,0.0,91,0.00,,,0.00,WUHU216DAVISVP2,2013-09-06 07:12:00,
2013-09-06 03:14:00,50.4,47.8,30.20,SSE,154,0.0,0.0,91,0.00,,,0.00,WUHU216DAVISVP2,2013-09-06 07:14:00,
2013-09-06 03:16:00,50.4,47.8,30.20,SSE,154,0.0,0.0,91,0.00,,,0.00,WUHU216DAVISVP2,2013-09-06 07:16:00,
2013-09-06 03:17:00,50.3,47.4,30.20,SSE,154,0.0,0.0,90,0.00,,,0.00,WUHU216DAVISVP2,2013-09-06 07:17:00,
2013-09-06 03:18:00,50.3,47.7,30.20,SSE,154,0.0,0.0,91,0.00,,,0.00,WUHU216DAVISVP2,2013-09-06 07:18:00,
2013-09-06 03:20:00,50.3,47.7,30.20,SSE,154,0.0,0.0,91,0.00,,,0.00,WUHU216DAVISVP2,2013-09-06 07:20:00,
2013-09-06 03:21:00,50.2,47.6,30.20,SSE,154,0.0,0.0,91,0.00,,,0.00,WUHU216DAVISVP2,2013-09-06 07:21:00,
2013-09-06 03:22:00,50.2,47.6,30.20,SSE,154,0.0,0.0,91,0.00,,,0.00,WUHU216DAVISVP2,2013-09-06 07:22:00,
2013-09-06 03:23:00,50.2,47.6,30.20,SSE,154,0.0,0.0,91,0.00,,,0.00,WUHU216DAVISVP2,2013-09-06 07:23:00,
2013-09-06 03:25:00,50.2,47.6,30.20,SSE,154,0.0,0.0,91,0.00,,,0.00,WUHU216DAVISVP2,2013-09-06 07:25:00,
2013-09-06 03:26:00,50.3,48.0,30.20,SSE,154,0.0,0.0,92,0.00,,,0.00,WUHU216DAVISVP2,2013-09-06 07:26:00,
2013-09-06 03:28:00,50.3,48.0,30.20,SSE,154,0.0,0.0,92,0.00,,,0.00,WUHU216DAVISVP2,2013-09-06 07:28:00,
2013-09-06 03:30:00,50.3,48.0,30.20,SSE,154,0.0,0.0,92,0.00,,,0.00,WUHU216DAVISVP2,2013-09-06 07:30:00,
2013-09-06 03:32:00,50.3,48.0,30.19,SSE,154,0.0,0.0,92,0.00,,,0.00,WUHU216DAVISVP2,2013-09-06 07:32:00,
2013-09-06 03:33:00,50.3,48.0,30.19,SSE,154,0.0,0.0,92,0.00,,,0.00,WUHU216DAVISVP2,2013-09-06 07:33:00,
2013-09-06 03:36:00,50.3,48.0,30.20,SSE,154,0.0,0.0,92,0.00,,,0.00,WUHU216DAVISVP2,2013-09-06 07:36:00,
2013-09-06 03:38:00,50.3,48.0,30.20,SSE,154,0.0,0.0,92,0.00,,,0.00,WUHU216DAVISVP2,2013-09-06 07:38:00,
2013-09-06 03:41:00,50.3,48.0,30.20,SSE,154,0.0,0.0,92,0.00,,,0.00,WUHU216DAVISVP2,2013-09-06 07:41:00,
2013-09-06 03:43:00,50.2,47.9,30.19,SSE,154,0.0,0.0,92,0.00,,,0.00,WUHU216DAVISVP2,2013-09-06 07:43:00,
2013-09-06 03:44:00,50.2,47.9,30.19,SSE,154,0.0,0.0,92,0.00,,,0.00,WUHU216DAVISVP2,2013-09-06 07:44:00,
2013-09-06 03:46:00,50.1,47.8,30.20,SSE,154,0.0,0.0,92,0.00,,,0.00,WUHU216DAVISVP2,2013-09-06 07:46:00,
2013-09-06 03:48:00,50.1,47.8,30.19,SSE,154,0.0,0.0,92,0.00,,,0.00,WUHU216DAVISVP2,2013-09-06 07:48:00,
2013-09-06 03:49:00,50.1,47.8,30.19,SSE,154,0.0,0.0,92,0.00,,,0.00,WUHU216DAVISVP2,2013-09-06 07:49:00,
2013-09-06 03:53:00,49.9,47.6,30.20,SSE,154,0.0,0.0,92,0.00,,,0.00,WUHU216DAVISVP2,2013-09-06 07:53:00,
2013-09-06 03:55:00,49.9,47.6,30.20,SSE,154,0.0,0.0,92,0.00,,,0.00,WUHU216DAVISVP2,2013-09-06 07:55:00,
2013-09-06 03:57:00,49.8,47.5,30.20,SSE,154,0.0,0.0,92,0.00,,,0.00,WUHU216DAVISVP2,2013-09-06 07:57:00,
2013-09-06 03:58:00,49.7,47.4,30.20,SSE,154,0.0,0.0,92,0.00,,,0.00,WUHU216DAVISVP2,2013-09-06 07:58:00,
2013-09-06 04:01:00,49.7,47.4,30.20,SSE,154,0.0,0.0,92,0.00,,,0.00,WUHU216DAVISVP2,2013-09-06 08:01:00,
2013-09-06 04:03:00,49.6,47.3,30.20,SSE,154,0.0,0.0,92,0.00,,,0.00,WUHU216DAVISVP2,2013-09-06 08:03:00,
2013-09-06 04:04:00,49.6,47.3,30.20,SSE,154,0.0,0.0,92,0.00,,,0.00,WUHU216DAVISVP2,2013-09-06 08:04:00,
2013-09-06 04:06:00,49.6,47.3,30.20,SSE,154,0.0,0.0,92,0.00,,,0.00,WUHU216DAVISVP2,2013-09-06 08:06:00,
2013-09-06 04:08:00,49.5,47.2,30.19,SSE,154,0.0,0.0,92,0.00,,,0.00,WUHU216DAVISVP2,2013-09-06 08:08:00,
2013-09-06 04:09:00,49.5,47.2,30.20,SSE,154,0.0,0.0,92,0.00,,,0.00,WUHU216DAVISVP2,2013-09-06 08:09:00,
2013-09-06 04:12:00,49.5,47.5,30.19,SSE,154,0.0,0.0,93,0.00,,,0.00,WUHU216DAVISVP2,2013-09-06 08:12:00,
2013-09-06 04:13:00,49.6,47.6,30.19,SSE,154,0.0,0.0,93,0.00,,,0.00,WUHU216DAVISVP2,2013-09-06 08:13:00,
2013-09-06 04:14:00,49.6,47.6,30.19,SSE,154,0.0,0.0,93,0.00,,,0.00,WUHU216DAVISVP2,2013-09-06 08:14:00,
2013-09-06 04:15:00,49.5,47.5,30.19,SSE,154,0.0,0.0,93,0.00,,,0.00,WUHU216DAVISVP2,2013-09-06 08:15:00,
2013-09-06 04:17:00,49.5,47.5,30.19,SSE,154,0.0,0.0,93,0.00,,,0.00,WUHU216DAVISVP2,2013-09-06 08:17:00,
2013-09-06 04:19:00,49.5,47.5,30.19,SSE,154,0.0,0.0,93,0.00,,,0.00,WUHU216DAVISVP2,2013-09-06 08:19:00,
2013-09-06 04:20:00,49.5,47.5,30.19,SSE,154,0.0,0.0,93,0.00,,,0.00,WUHU216DAVISVP2,2013-09-06 08:20:00,
2013-09-06 04:22:00,49.5,47.5,30.19,SSE,154,0.0,0.0,93,0.00,,,0.00,WUHU216DAVISVP2,2013-09-06 08:22:00,
2013-09-06 04:23:00,49.4,47.4,30.20,SSE,154,0.0,0.0,93,0.00,,,0.00,WUHU216DAVISVP2,2013-09-06 08:23:00,
2013-09-06 04:24:00,49.4,47.4,30.20,SSE,154,0.0,0.0,93,0.00,,,0.00,WUHU216DAVISVP2,2013-09-06 08:24:00,
2013-09-06 04:26:00,49.4,47.4,30.20,SSE,154,0.0,0.0,93,0.00,,,0.00,WUHU216DAVISVP2,2013-09-06 08:26:00,
2013-09-06 04:28:00,49.4,47.4,30.20,SSE,154,0.0,0.0,93,0.00,,,0.00,WUHU216DAVISVP2,2013-09-06 08:28:00,
2013-09-06 04:29:00,49.3,47.3,30.20,SSE,154,0.0,0.0,93,0.00,,,0.00,WUHU216DAVISVP2,2013-09-06 08:29:00,
2013-09-06 04:31:00,49.3,47.3,30.20,SSE,154,0.0,0.0,93,0.00,,,0.00,WUHU216DAVISVP2,2013-09-06 08:31:00,
2013-09-06 04:32:00,49.3,47.3,30.20,SSE,154,0.0,0.0,93,0.00,,,0.00,WUHU216DAVISVP2,2013-09-06 08:32:00,
2013-09-06 04:34:00,49.2,47.2,30.20,SSE,154,0.0,0.0,93,0.00,,,0.00,WUHU216DAVISVP2,2013-09-06 08:34:00,
2013-09-06 04:35:00,49.2,47.2,30.20,SSE,154,0.0,0.0,93,0.00,,,0.00,WUHU216DAVISVP2,2013-09-06 08:35:00,
2013-09-06 04:38:00,49.1,47.1,30.20,SSE,154,0.0,0.0,93,0.00,,,0.00,WUHU216DAVISVP2,2013-09-06 08:38:00,
2013-09-06 04:39:00,49.0,47.0,30.20,SSE,154,0.0,0.0,93,0.00,,,0.00,WUHU216DAVISVP2,2013-09-06 08:39:00,
2013-09-06 04:41:00,49.0,47.0,30.21,SSE,154,0.0,0.0,93,0.00,,,0.00,WUHU216DAVISVP2,2013-09-06 08:41:00,
2013-09-06 04:43:00,48.9,46.6,30.20,SSE,154,0.0,0.0,92,0.00,,,0.00,WUHU216DAVISVP2,2013-09-06 08:43:00,
2013-09-06 04:45:00,48.9,46.6,30.20,SSE,154,0.0,0.0,92,0.00,,,0.00,WUHU216DAVISVP2,2013-09-06 08:45:00,
2013-09-06 04:48:00,48.8,46.8,30.20,SSE,154,0.0,0.0,93,0.00,,,0.00,WUHU216DAVISVP2,2013-09-06 08:48:00,
2013-09-06 04:50:00,48.7,46.7,30.20,SSE,154,0.0,0.0,93,0.00,,,0.00,WUHU216DAVISVP2,2013-09-06 08:50:00,
2013-09-06 04:52:00,48.7,46.7,30.20,SSE,154,0.0,0.0,93,0.00,,,0.00,WUHU216DAVISVP2,2013-09-06 08:52:00,
2013-09-06 04:55:00,48.7,46.7,30.20,SSE,154,0.0,0.0,93,0.00,,,0.00,WUHU216DAVISVP2,2013-09-06 08:55:00,
2013-09-06 04:56:00,48.6,46.6,30.20,SSE,154,0.0,0.0,93,0.00,,,0.00,WUHU216DAVISVP2,2013-09-06 08:56:00,
2013-09-06 04:58:00,48.6,46.6,30.20,SSE,154,0.0,0.0,93,0.00,,,0.00,WUHU216DAVISVP2,2013-09-06 08:58:00,
2013-09-06 05:00:00,48.6,46.6,30.20,SSE,154,0.0,0.0,93,0.00,,,0.00,WUHU216DAVISVP2,2013-09-06 09:00:00,
2013-09-06 05:03:00,48.5,46.5,30.19,SSE,154,0.0,0.0,93,0.00,,,0.00,WUHU216DAVISVP2,2013-09-06 09:03:00,
2013-09-06 05:04:00,48.5,46.5,30.20,SSE,154,0.0,0.0,93,0.00,,,0.00,WUHU216DAVISVP2,2013-09-06 09:04:00,
2013-09-06 05:05:00,48.5,46.5,30.20,SSE,154,0.0,0.0,93,0.00,,,0.00,WUHU216DAVISVP2,2013-09-06 09:05:00,
2013-09-06 05:06:00,48.5,46.5,30.19,SSE,154,0.0,0.0,93,0.00,,,0.00,WUHU216DAVISVP2,2013-09-06 09:06:00,
2013-09-06 05:08:00,48.5,46.5,30.19,SSE,154,0.0,0.0,93,0.00,,,0.00,WUHU216DAVISVP2,2013-09-06 09:08:00,
2013-09-06 05:10:00,48.4,46.4,30.19,SSE,154,0.0,0.0,93,0.00,,,0.00,WUHU216DAVISVP2,2013-09-06 09:10:00,
2013-09-06 05:12:00,48.4,46.4,30.20,SSE,154,0.0,0.0,93,0.00,,,0.00,WUHU216DAVISVP2,2013-09-06 09:12:00,
2013-09-06 05:14:00,48.4,46.4,30.20,SSE,154,0.0,0.0,93,0.00,,,0.00,WUHU216DAVISVP2,2013-09-06 09:14:00,
2013-09-06 05:15:00,48.3,46.3,30.20,SSE,154,0.0,0.0,93,0.00,,,0.00,WUHU216DAVISVP2,2013-09-06 09:15:00,
2013-09-06 05:18:00,48.3,46.3,30.20,SSE,154,0.0,0.0,93,0.00,,,0.00,WUHU216DAVISVP2,2013-09-06 09:18:00,
2013-09-06 05:21:00,48.3,46.3,30.20,SSE,154,0.0,0.0,93,0.00,,,0.00,WUHU216DAVISVP2,2013-09-06 09:21:00,
2013-09-06 05:22:00,48.2,46.2,30.20,SSE,154,0.0,0.0,93,0.00,,,0.00,WUHU216DAVISVP2,2013-09-06 09:22:00,
2013-09-06 05:24:00,48.2,46.2,30.20,SSE,154,0.0,0.0,93,0.00,,,0.00,WUHU216DAVISVP2,2013-09-06 09:24:00,
2013-09-06 05:25:00,48.2,47.7,30.20,SSE,154,0.0,0.0,98,0.00,,,0.00,WUHU216DAVISVP2,2013-09-06 09:25:00,
2013-09-06 05:26:00,48.2,47.7,30.20,SSE,154,0.0,0.0,98,0.00,,,0.00,WUHU216DAVISVP2,2013-09-06 09:26:00,
2013-09-06 05:27:00,48.2,46.3,30.20,SSE,154,0.0,0.0,93,0.00,,,0.00,WUHU216DAVISVP2,2013-09-06 09:27:00,
2013-09-06 05:28:00,48.1,46.2,30.20,SSE,154,0.0,0.0,93,0.00,,,0.00,WUHU216DAVISVP2,2013-09-06 09:28:00,
2013-09-06 05:30:00,48.1,46.2,30.20,SSE,154,0.0,0.0,93,0.00,,,0.00,WUHU216DAVISVP2,2013-09-06 09:30:00,
2013-09-06 05:31:00,48.1,46.2,30.20,SSE,154,0.0,0.0,93,0.00,,,0.00,WUHU216DAVISVP2,2013-09-06 09:31:00,
2013-09-06 05:33:00,48.0,46.1,30.20,SSE,154,0.0,0.0,93,0.00,,,0.00,WUHU216DAVISVP2,2013-09-06 09:33:00,
2013-09-06 05:36:00,48.0,46.4,30.20,SSE,154,0.0,0.0,94,0.00,,,0.00,WUHU216DAVISVP2,2013-09-06 09:36:00,
2013-09-06 05:39:00,48.0,46.4,30.20,SSE,154,0.0,0.0,94,0.00,,,0.00,WUHU216DAVISVP2,2013-09-06 09:39:00,
2013-09-06 05:41:00,48.0,46.4,30.20,SSE,154,0.0,0.0,94,0.00,,,0.00,WUHU216DAVISVP2,2013-09-06 09:41:00,
2013-09-06 05:43:00,48.0,46.4,30.20,SSE,154,0.0,0.0,94,0.00,,,0.00,WUHU216DAVISVP2,2013-09-06 09:43:00,
2013-09-06 05:44:00,47.9,46.3,30.20,SSE,154,0.0,0.0,94,0.00,,,0.00,WUHU216DAVISVP2,2013-09-06 09:44:00,
2013-09-06 05:46:00,47.9,46.3,30.20,SSE,154,0.0,0.0,94,0.00,,,0.00,WUHU216DAVISVP2,2013-09-06 09:46:00,
2013-09-06 05:49:00,47.8,46.2,30.20,SSE,154,0.0,0.0,94,0.00,,,0.00,WUHU216DAVISVP2,2013-09-06 09:49:00,
2013-09-06 05:50:00,47.7,46.1,30.20,SSE,154,0.0,0.0,94,0.00,,,0.00,WUHU216DAVISVP2,2013-09-06 09:50:00,
2013-09-06 05:51:00,47.7,46.1,30.20,SSE,154,0.0,0.0,94,0.00,,,0.00,WUHU216DAVISVP2,2013-09-06 09:51:00,
2013-09-06 05:54:00,47.7,46.1,30.20,SSE,154,0.0,0.0,94,0.00,,,0.00,WUHU216DAVISVP2,2013-09-06 09:54:00,
2013-09-06 05:56:00,47.6,46.0,30.20,SSE,154,0.0,0.0,94,0.00,,,0.00,WUHU216DAVISVP2,2013-09-06 09:56:00,
2013-09-06 05:57:00,47.6,46.0,30.20,SSE,154,0.0,0.0,94,0.00,,,0.00,WUHU216DAVISVP2,2013-09-06 09:57:00,
2013-09-06 06:00:00,47.5,45.6,30.20,SSE,154,0.0,0.0,93,0.00,,,0.00,WUHU216DAVISVP2,2013-09-06 10:00:00,
2013-09-06 06:01:00,47.5,45.9,30.20,SSE,154,0.0,0.0,94,0.00,,,0.00,WUHU216DAVISVP2,2013-09-06 10:01:00,
2013-09-06 06:03:00,47.4,45.4,30.20,SSE,154,0.0,0.0,93,0.00,,,0.00,WUHU216DAVISVP2,2013-09-06 10:03:00,
2013-09-06 06:04:00,47.4,45.4,30.20,SSE,154,0.0,0.0,93,0.00,,,0.00,WUHU216DAVISVP2,2013-09-06 10:04:00,
2013-09-06 06:06:00,47.3,45.6,30.20,SSE,154,0.0,0.0,94,0.00,,,0.00,WUHU216DAVISVP2,2013-09-06 10:06:00,
2013-09-06 06:07:00,47.3,45.6,30.20,SSE,154,0.0,0.0,94,0.00,,,0.00,WUHU216DAVISVP2,2013-09-06 10:07:00,
2013-09-06 06:08:00,47.3,45.6,30.20,SSE,154,0.0,0.0,94,0.00,,,0.00,WUHU216DAVISVP2,2013-09-06 10:08:00,
2013-09-06 06:10:00,47.4,45.7,30.20,SSE,154,0.0,0.0,94,0.00,,,0.00,WUHU216DAVISVP2,2013-09-06 10:10:00,
2013-09-06 06:12:00,47.3,45.6,30.20,SSE,154,0.0,0.0,94,0.00,,,0.00,WUHU216DAVISVP2,2013-09-06 10:12:00,
2013-09-06 06:13:00,47.3,45.6,30.20,SSE,154,0.0,0.0,94,0.00,,,0.00,WUHU216DAVISVP2,2013-09-06 10:13:00,
2013-09-06 06:15:00,47.3,45.6,30.20,SSE,154,0.0,0.0,94,0.00,,,0.00,WUHU216DAVISVP2,2013-09-06 10:15:00,
2013-09-06 06:17:00,47.3,45.6,30.20,SSE,154,0.0,0.0,94,0.00,,,0.00,WUHU216DAVISVP2,2013-09-06 10:17:00,
2013-09-06 06:19:00,47.3,45.6,30.20,SSE,154,0.0,0.0,94,0.00,,,0.00,WUHU216DAVISVP2,2013-09-06 10:19:00,
2013-09-06 06:22:00,47.2,45.5,30.20,SSE,154,0.0,0.0,94,0.00,,,0.00,WUHU216DAVISVP2,2013-09-06 10:22:00,
2013-09-06 06:26:00,47.3,45.9,30.20,SSE,154,0.0,0.0,95,0.00,,,0.00,WUHU216DAVISVP2,2013-09-06 10:26:00,
2013-09-06 06:27:00,47.3,45.9,30.20,SSE,154,0.0,0.0,95,0.00,,,0.00,WUHU216DAVISVP2,2013-09-06 10:27:00,
2013-09-06 06:31:00,47.3,45.6,30.20,SSE,154,0.0,0.0,94,0.00,,,0.00,WUHU216DAVISVP2,2013-09-06 10:31:00,
2013-09-06 06:32:00,47.3,45.6,30.20,SSE,154,0.0,0.0,94,0.00,,,0.00,WUHU216DAVISVP2,2013-09-06 10:32:00,
2013-09-06 06:33:00,47.3,45.6,30.20,SSE,154,0.0,0.0,94,0.00,,,0.00,WUHU216DAVISVP2,2013-09-06 10:33:00,
2013-09-06 06:34:00,47.2,45.5,30.20,SSE,154,0.0,0.0,94,0.00,,,0.00,WUHU216DAVISVP2,2013-09-06 10:34:00,
2013-09-06 06:36:00,47.2,45.5,30.20,SSE,154,0.0,0.0,94,0.00,,,0.00,WUHU216DAVISVP2,2013-09-06 10:36:00,
2013-09-06 06:37:00,47.2,45.5,30.20,SSE,154,0.0,0.0,94,0.00,,,0.00,WUHU216DAVISVP2,2013-09-06 10:37:00,
2013-09-06 06:41:00,47.1,45.4,30.20,SSE,154,0.0,0.0,94,0.00,,,0.00,WUHU216DAVISVP2,2013-09-06 10:41:00,
2013-09-06 06:42:00,47.1,45.4,30.21,SSE,154,0.0,0.0,94,0.00,,,0.00,WUHU216DAVISVP2,2013-09-06 10:42:00,
2013-09-06 06:45:00,47.1,45.4,30.21,SSE,154,0.0,0.0,94,0.00,,,0.00,WUHU216DAVISVP2,2013-09-06 10:45:00,
2013-09-06 06:48:00,47.1,45.4,30.21,SSE,154,0.0,0.0,94,0.00,,,0.00,WUHU216DAVISVP2,2013-09-06 10:48:00,
2013-09-06 06:50:00,47.1,45.4,30.21,SSE,154,0.0,0.0,94,0.00,,,0.00,WUHU216DAVISVP2,2013-09-06 10:50:00,
2013-09-06 06:52:00,47.1,45.4,30.21,SSE,154,0.0,0.0,94,0.00,,,0.00,WUHU216DAVISVP2,2013-09-06 10:52:00,
2013-09-06 06:53:00,47.1,45.4,30.21,SSE,154,0.0,0.0,94,0.00,,,0.00,WUHU216DAVISVP2,2013-09-06 10:53:00,
2013-09-06 06:55:00,47.0,45.3,30.21,SSE,154,0.0,0.0,94,0.00,,,0.00,WUHU216DAVISVP2,2013-09-06 10:55:00,
2013-09-06 06:57:00,47.0,45.3,30.21,SSE,154,0.0,0.0,94,0.00,,,0.00,WUHU216DAVISVP2,2013-09-06 10:57:00,
2013-09-06 06:58:00,47.0,45.3,30.21,SSE,154,0.0,0.0,94,0.00,,,0.00,WUHU216DAVISVP2,2013-09-06 10:58:00,
2013-09-06 07:02:00,46.9,45.3,30.21,SSE,154,0.0,0.0,94,0.00,,,0.00,WUHU216DAVISVP2,2013-09-06 11:02:00,
2013-09-06 07:03:00,46.9,45.3,30.21,SSE,154,0.0,0.0,94,0.00,,,0.00,WUHU216DAVISVP2,2013-09-06 11:03:00,
2013-09-06 07:06:00,46.9,45.3,30.21,SSE,154,0.0,0.0,94,0.00,,,0.00,WUHU216DAVISVP2,2013-09-06 11:06:00,
2013-09-06 07:08:00,46.8,45.2,30.21,SSE,154,0.0,0.0,94,0.00,,,0.00,WUHU216DAVISVP2,2013-09-06 11:08:00,
2013-09-06 07:09:00,46.8,45.2,30.21,SSE,154,0.0,0.0,94,0.00,,,0.00,WUHU216DAVISVP2,2013-09-06 11:09:00,
2013-09-06 07:12:00,46.8,45.2,30.21,SSE,154,0.0,0.0,94,0.00,,,0.00,WUHU216DAVISVP2,2013-09-06 11:12:00,
2013-09-06 07:13:00,46.8,45.2,30.21,SSE,154,0.0,0.0,94,0.00,,,0.00,WUHU216DAVISVP2,2013-09-06 11:13:00,
2013-09-06 07:14:00,46.8,45.4,30.21,SSE,154,0.0,0.0,95,0.00,,,0.00,WUHU216DAVISVP2,2013-09-06 11:14:00,
2013-09-06 07:15:00,46.8,45.4,30.22,SSE,154,0.0,0.0,95,0.00,,,0.00,WUHU216DAVISVP2,2013-09-06 11:15:00,
2013-09-06 07:18:00,46.8,45.4,30.22,SSE,154,0.0,0.0,95,0.00,,,0.00,WUHU216DAVISVP2,2013-09-06 11:18:00,
2013-09-06 07:19:00,46.8,45.4,30.21,SSE,154,0.0,0.0,95,0.00,,,0.00,WUHU216DAVISVP2,2013-09-06 11:19:00,
2013-09-06 07:22:00,46.8,45.4,30.21,SSE,154,0.0,0.0,95,0.00,,,0.00,WUHU216DAVISVP2,2013-09-06 11:22:00,
2013-09-06 07:23:00,46.7,45.3,30.21,SSE,154,0.0,0.0,95,0.00,,,0.00,WUHU216DAVISVP2,2013-09-06 11:23:00,
2013-09-06 07:27:00,46.7,45.0,30.21,SSE,154,0.0,0.0,94,0.00,,,0.00,WUHU216DAVISVP2,2013-09-06 11:27:00,
2013-09-06 07:28:00,46.7,45.0,30.21,SSE,154,0.0,0.0,94,0.00,,,0.00,WUHU216DAVISVP2,2013-09-06 11:28:00,
2013-09-06 07:29:00,46.7,45.0,30.21,SSE,154,0.0,0.0,94,0.00,,,0.00,WUHU216DAVISVP2,2013-09-06 11:29:00,
2013-09-06 07:30:00,46.7,45.0,30.22,SSE,154,0.0,0.0,94,0.00,,,0.00,WUHU216DAVISVP2,2013-09-06 11:30:00,
2013-09-06 07:34:00,46.6,44.9,30.22,SSE,154,0.0,0.0,94,0.00,,,0.00,WUHU216DAVISVP2,2013-09-06 11:34:00,
2013-09-06 07:35:00,46.6,45.2,30.22,SSE,154,0.0,0.0,95,0.00,,,0.00,WUHU216DAVISVP2,2013-09-06 11:35:00,
2013-09-06 07:37:00,46.6,45.2,30.22,SSE,154,0.0,0.0,95,0.00,,,0.00,WUHU216DAVISVP2,2013-09-06 11:37:00,
2013-09-06 07:39:00,46.6,45.2,30.22,SSE,154,0.0,0.0,95,0.00,,,0.00,WUHU216DAVISVP2,2013-09-06 11:39:00,
2013-09-06 07:40:00,46.6,45.2,30.22,SSE,154,0.0,0.0,95,0.00,,,0.00,WUHU216DAVISVP2,2013-09-06 11:40:00,
2013-09-06 07:42:00,46.6,45.2,30.22,SSE,154,0.0,0.0,95,0.00,,,0.00,WUHU216DAVISVP2,2013-09-06 11:42:00,
2013-09-06 07:44:00,46.6,45.2,30.22,SSE,154,0.0,0.0,95,0.00,,,0.00,WUHU216DAVISVP2,2013-09-06 11:44:00,
2013-09-06 07:46:00,46.7,45.3,30.22,SSE,154,0.0,0.0,95,0.00,,,0.00,WUHU216DAVISVP2,2013-09-06 11:46:00,
2013-09-06 07:47:00,46.7,45.3,30.22,SSE,154,0.0,0.0,95,0.00,,,0.00,WUHU216DAVISVP2,2013-09-06 11:47:00,
2013-09-06 07:49:00,46.8,45.4,30.22,SSE,154,0.0,0.0,95,0.00,,,0.00,WUHU216DAVISVP2,2013-09-06 11:49:00,
2013-09-06 07:50:00,46.9,45.5,30.22,SSE,154,0.0,0.0,95,0.00,,,0.00,WUHU216DAVISVP2,2013-09-06 11:50:00,
2013-09-06 07:54:00,47.2,45.8,30.22,SSE,154,0.0,0.0,95,0.00,,,0.00,WUHU216DAVISVP2,2013-09-06 11:54:00,
2013-09-06 07:57:00,47.5,46.4,30.22,SSE,154,0.0,0.0,96,0.00,,,0.00,WUHU216DAVISVP2,2013-09-06 11:57:00,
2013-09-06 07:59:00,47.6,46.5,30.22,SSE,154,0.0,0.0,96,0.00,,,0.00,WUHU216DAVISVP2,2013-09-06 11:59:00,
2013-09-06 08:03:00,48.1,47.0,30.22,SSE,154,0.0,0.0,96,0.00,,,0.00,WUHU216DAVISVP2,2013-09-06 12:03:00,
2013-09-06 08:04:00,48.1,47.0,30.22,SSE,154,0.0,0.0,96,0.00,,,0.00,WUHU216DAVISVP2,2013-09-06 12:04:00,
2013-09-06 08:07:00,48.5,47.4,30.22,SSE,154,0.0,0.0,96,0.00,,,0.00,WUHU216DAVISVP2,2013-09-06 12:07:00,
2013-09-06 08:09:00,48.6,47.5,30.22,SSE,154,0.0,0.0,96,0.00,,,0.00,WUHU216DAVISVP2,2013-09-06 12:09:00,
2013-09-06 08:10:00,48.8,47.7,30.22,SSE,154,0.0,0.0,96,0.00,,,0.00,WUHU216DAVISVP2,2013-09-06 12:10:00,
2013-09-06 08:13:00,49.2,48.1,30.22,SSE,154,0.0,0.0,96,0.00,,,0.00,WUHU216DAVISVP2,2013-09-06 12:13:00,
2013-09-06 08:14:00,49.5,48.4,30.22,SSE,154,0.0,0.0,96,0.00,,,0.00,WUHU216DAVISVP2,2013-09-06 12:14:00,
2013-09-06 08:16:00,49.7,48.6,30.22,SSE,154,0.0,0.0,96,0.00,,,0.00,WUHU216DAVISVP2,2013-09-06 12:16:00,
2013-09-06 08:17:00,50.0,48.9,30.22,SSE,154,0.0,0.0,96,0.00,,,0.00,WUHU216DAVISVP2,2013-09-06 12:17:00,
2013-09-06 08:19:00,50.3,49.2,30.22,SSE,154,0.0,0.0,96,0.00,,,0.00,WUHU216DAVISVP2,2013-09-06 12:19:00,
2013-09-06 08:21:00,50.8,49.9,30.22,SSE,154,0.0,0.0,97,0.00,,,0.00,WUHU216DAVISVP2,2013-09-06 12:21:00,
2013-09-06 08:23:00,51.1,50.0,30.22,SSE,154,0.0,0.0,96,0.00,,,0.00,WUHU216DAVISVP2,2013-09-06 12:23:00,
2013-09-06 08:24:00,51.4,50.5,30.22,SSE,154,0.0,0.0,97,0.00,,,0.00,WUHU216DAVISVP2,2013-09-06 12:24:00,
2013-09-06 08:29:00,52.1,51.0,30.21,SSE,154,0.0,0.0,96,0.00,,,0.00,WUHU216DAVISVP2,2013-09-06 12:29:00,
2013-09-06 08:30:00,52.1,51.0,30.21,SSE,154,0.0,0.0,96,0.00,,,0.00,WUHU216DAVISVP2,2013-09-06 12:30:00,
2013-09-06 08:32:00,52.4,51.3,30.21,SSE,154,0.0,0.0,96,0.00,,,0.00,WUHU216DAVISVP2,2013-09-06 12:32:00,
2013-09-06 08:35:00,52.6,51.2,30.21,SSE,154,0.0,0.0,95,0.00,,,0.00,WUHU216DAVISVP2,2013-09-06 12:35:00,
2013-09-06 08:36:00,53.1,51.7,30.21,SSE,154,0.0,0.0,95,0.00,,,0.00,WUHU216DAVISVP2,2013-09-06 12:36:00,
2013-09-06 08:39:00,53.6,52.2,30.21,SSE,154,0.0,0.0,95,0.00,,,0.00,WUHU216DAVISVP2,2013-09-06 12:39:00,
2013-09-06 08:40:00,53.6,52.2,30.21,SSE,154,0.0,0.0,95,0.00,,,0.00,WUHU216DAVISVP2,2013-09-06 12:40:00,
2013-09-06 08:42:00,54.2,52.5,30.21,SSE,154,0.0,0.0,94,0.00,,,0.00,WUHU216DAVISVP2,2013-09-06 12:42:00,
2013-09-06 08:44:00,54.5,52.5,30.22,SSE,154,0.0,0.0,93,0.00,,,0.00,WUHU216DAVISVP2,2013-09-06 12:44:00,
2013-09-06 08:45:00,54.5,52.5,30.22,SSE,154,0.0,0.0,93,0.00,,,0.00,WUHU216DAVISVP2,2013-09-06 12:45:00,
2013-09-06 08:46:00,54.8,52.5,30.22,SSE,154,0.0,0.0,92,0.00,,,0.00,WUHU216DAVISVP2,2013-09-06 12:46:00,
2013-09-06 08:48:00,55.1,52.2,30.21,SSE,154,0.0,0.0,90,0.00,,,0.00,WUHU216DAVISVP2,2013-09-06 12:48:00,
2013-09-06 08:50:00,55.3,52.1,30.21,SSE,154,0.0,0.0,89,0.00,,,0.00,WUHU216DAVISVP2,2013-09-06 12:50:00,
2013-09-06 08:55:00,56.0,52.2,30.21,SSE,154,0.0,0.0,87,0.00,,,0.00,WUHU216DAVISVP2,2013-09-06 12:55:00,
2013-09-06 08:57:00,56.3,52.2,30.22,SSE,154,0.0,0.0,86,0.00,,,0.00,WUHU216DAVISVP2,2013-09-06 12:57:00,
2013-09-06 08:58:00,56.5,52.4,30.22,SSE,154,1.0,1.0,86,0.00,,,0.00,WUHU216DAVISVP2,2013-09-06 12:58:00,
2013-09-06 09:00:00,56.7,52.2,30.22,SSE,154,0.0,1.0,85,0.00,,,0.00,WUHU216DAVISVP2,2013-09-06 13:00:00,
2013-09-06 09:01:00,56.9,52.1,30.22,SSE,154,0.0,1.0,84,0.00,,,0.00,WUHU216DAVISVP2,2013-09-06 13:01:00,
2013-09-06 09:03:00,57.0,51.9,30.22,SSE,154,0.0,1.0,83,0.00,,,0.00,WUHU216DAVISVP2,2013-09-06 13:03:00,
2013-09-06 09:05:00,57.2,52.1,30.22,SSE,154,0.0,1.0,83,0.00,,,0.00,WUHU216DAVISVP2,2013-09-06 13:05:00,
2013-09-06 09:06:00,57.3,52.2,30.22,SSE,154,0.0,1.0,83,0.00,,,0.00,WUHU216DAVISVP2,2013-09-06 13:06:00,
2013-09-06 09:09:00,57.5,52.1,30.22,SSE,154,0.0,1.0,82,0.00,,,0.00,WUHU216DAVISVP2,2013-09-06 13:09:00,
2013-09-06 09:10:00,57.7,52.3,30.22,SSE,154,0.0,1.0,82,0.00,,,0.00,WUHU216DAVISVP2,2013-09-06 13:10:00,
2013-09-06 09:12:00,57.8,52.4,30.22,SSE,154,0.0,1.0,82,0.00,,,0.00,WUHU216DAVISVP2,2013-09-06 13:12:00,
2013-09-06 09:14:00,58.0,52.9,30.22,SSE,154,0.0,0.0,83,0.00,,,0.00,WUHU216DAVISVP2,2013-09-06 13:14:00,
2013-09-06 09:15:00,58.1,52.7,30.22,SSE,154,0.0,0.0,82,0.00,,,0.00,WUHU216DAVISVP2,2013-09-06 13:15:00,
2013-09-06 09:18:00,58.4,52.6,30.22,SSE,154,0.0,0.0,81,0.00,,,0.00,WUHU216DAVISVP2,2013-09-06 13:18:00,
2013-09-06 09:19:00,58.5,52.7,30.22,SSE,154,0.0,0.0,81,0.00,,,0.00,WUHU216DAVISVP2,2013-09-06 13:19:00,
2013-09-06 09:20:00,58.5,52.7,30.22,SSE,154,0.0,0.0,81,0.00,,,0.00,WUHU216DAVISVP2,2013-09-06 13:20:00,
2013-09-06 09:22:00,58.8,53.0,30.22,SSE,154,0.0,0.0,81,0.00,,,0.00,WUHU216DAVISVP2,2013-09-06 13:22:00,
2013-09-06 09:24:00,59.0,52.6,30.21,SSE,154,0.0,0.0,79,0.00,,,0.00,WUHU216DAVISVP2,2013-09-06 13:24:00,
2013-09-06 09:25:00,59.3,52.9,30.21,SSE,154,0.0,0.0,79,0.00,,,0.00,WUHU216DAVISVP2,2013-09-06 13:25:00,
2013-09-06 09:26:00,59.4,52.9,30.21,SSE,154,0.0,0.0,79,0.00,,,0.00,WUHU216DAVISVP2,2013-09-06 13:26:00,
2013-09-06 09:29:00,60.0,52.5,30.21,SSE,154,0.0,1.0,76,0.00,,,0.00,WUHU216DAVISVP2,2013-09-06 13:29:00,
2013-09-06 09:31:00,60.0,52.5,30.21,SSE,154,0.0,1.0,76,0.00,,,0.00,WUHU216DAVISVP2,2013-09-06 13:31:00,
2013-09-06 09:32:00,60.6,53.1,30.21,SSE,154,0.0,1.0,76,0.00,,,0.00,WUHU216DAVISVP2,2013-09-06 13:32:00,
2013-09-06 09:34:00,60.9,53.0,30.21,SSE,154,0.0,1.0,75,0.00,,,0.00,WUHU216DAVISVP2,2013-09-06 13:34:00,
2013-09-06 09:35:00,61.2,52.6,30.21,SSE,154,0.0,1.0,73,0.00,,,0.00,WUHU216DAVISVP2,2013-09-06 13:35:00,
2013-09-06 09:36:00,61.2,52.6,30.21,SSE,154,0.0,1.0,73,0.00,,,0.00,WUHU216DAVISVP2,2013-09-06 13:36:00,
2013-09-06 09:39:00,61.8,53.2,30.22,SSE,154,0.0,1.0,73,0.00,,,0.00,WUHU216DAVISVP2,2013-09-06 13:39:00,
2013-09-06 09:41:00,62.0,52.6,30.22,SSE,154,0.0,1.0,71,0.00,,,0.00,WUHU216DAVISVP2,2013-09-06 13:41:00,
2013-09-06 09:42:00,62.2,52.4,30.22,SSE,153,2.0,2.0,70,0.00,,,0.00,WUHU216DAVISVP2,2013-09-06 13:42:00,
2013-09-06 09:44:00,62.2,52.1,30.21,SSE,153,0.0,2.0,69,0.00,,,0.00,WUHU216DAVISVP2,2013-09-06 13:44:00,
2013-09-06 09:46:00,62.3,52.1,30.21,SSE,153,2.0,2.0,69,0.00,,,0.00,WUHU216DAVISVP2,2013-09-06 13:46:00,
2013-09-06 09:48:00,62.3,52.1,30.21,SSE,153,0.0,2.0,69,0.00,,,0.00,WUHU216DAVISVP2,2013-09-06 13:48:00,
2013-09-06 09:50:00,62.3,52.1,30.21,SSE,153,0.0,2.0,69,0.00,,,0.00,WUHU216DAVISVP2,2013-09-06 13:50:00,
2013-09-06 09:51:00,62.4,52.2,30.21,SSE,153,0.0,2.0,69,0.00,,,0.00,WUHU216DAVISVP2,2013-09-06 13:51:00,
2013-09-06 09:52:00,62.4,52.2,30.21,SSE,153,0.0,2.0,69,0.00,,,0.00,WUHU216DAVISVP2,2013-09-06 13:52:00,
2013-09-06 09:54:00,62.5,52.3,30.21,SSE,153,0.0,2.0,69,0.00,,,0.00,WUHU216DAVISVP2,2013-09-06 13:54:00,
2013-09-06 09:56:00,62.6,52.0,30.21,SSE,153,0.0,1.0,68,0.00,,,0.00,WUHU216DAVISVP2,2013-09-06 13:56:00,
2013-09-06 09:57:00,62.6,52.4,30.21,SSE,153,0.0,1.0,69,0.00,,,0.00,WUHU216DAVISVP2,2013-09-06 13:57:00,
2013-09-06 10:00:00,62.7,52.5,30.21,SSE,153,0.0,1.0,69,0.00,,,0.00,WUHU216DAVISVP2,2013-09-06 14:00:00,
2013-09-06 10:01:00,62.7,52.9,30.21,SSE,153,0.0,1.0,70,0.00,,,0.00,WUHU216DAVISVP2,2013-09-06 14:01:00,
2013-09-06 10:03:00,62.8,53.0,30.21,SSE,153,0.0,0.0,70,0.00,,,0.00,WUHU216DAVISVP2,2013-09-06 14:03:00,
2013-09-06 10:04:00,62.9,53.1,30.21,SSE,153,0.0,1.0,70,0.00,,,0.00,WUHU216DAVISVP2,2013-09-06 14:04:00,
2013-09-06 10:06:00,63.1,52.9,30.21,SSE,153,0.0,1.0,69,0.00,,,0.00,WUHU216DAVISVP2,2013-09-06 14:06:00,
2013-09-06 10:07:00,63.1,52.9,30.21,SSE,153,0.0,1.0,69,0.00,,,0.00,WUHU216DAVISVP2,2013-09-06 14:07:00,
2013-09-06 10:10:00,63.5,51.7,30.21,SSE,153,1.0,2.0,65,0.00,,,0.00,WUHU216DAVISVP2,2013-09-06 14:10:00,
2013-09-06 10:11:00,63.8,52.0,30.21,SSE,153,0.0,2.0,65,0.00,,,0.00,WUHU216DAVISVP2,2013-09-06 14:11:00,
2013-09-06 10:12:00,63.8,52.0,30.21,SSE,153,0.0,2.0,65,0.00,,,0.00,WUHU216DAVISVP2,2013-09-06 14:12:00,
2013-09-06 10:14:00,64.3,51.9,30.21,SSE,154,0.0,2.0,64,0.00,,,0.00,WUHU216DAVISVP2,2013-09-06 14:14:00,
2013-09-06 10:16:00,64.5,51.2,30.21,SSE,154,1.0,2.0,62,0.00,,,0.00,WUHU216DAVISVP2,2013-09-06 14:16:00,
2013-09-06 10:17:00,64.5,51.2,30.21,SSE,154,1.0,2.0,62,0.00,,,0.00,WUHU216DAVISVP2,2013-09-06 14:17:00,
2013-09-06 10:19:00,64.9,50.7,30.21,SE,145,2.0,5.0,60,0.00,,,0.00,WUHU216DAVISVP2,2013-09-06 14:19:00,
2013-09-06 10:20:00,65.0,51.2,30.21,East,98,1.0,5.0,61,0.00,,,0.00,WUHU216DAVISVP2,2013-09-06 14:20:00,
2013-09-06 10:22:00,65.0,51.7,30.21,East,98,1.0,5.0,62,0.00,,,0.00,WUHU216DAVISVP2,2013-09-06 14:22:00,
2013-09-06 10:23:00,65.0,51.7,30.21,East,98,0.0,5.0,62,0.00,,,0.00,WUHU216DAVISVP2,2013-09-06 14:23:00,
2013-09-06 10:25:00,65.0,51.7,30.21,ESE,113,0.0,5.0,62,0.00,,,0.00,WUHU216DAVISVP2,2013-09-06 14:25:00,
2013-09-06 10:26:00,65.1,51.8,30.21,WSW,244,1.0,5.0,62,0.00,,,0.00,WUHU216DAVISVP2,2013-09-06 14:26:00,
2013-09-06 10:27:00,65.1,51.8,30.21,WSW,244,1.0,5.0,62,0.00,,,0.00,WUHU216DAVISVP2,2013-09-06 14:27:00,
2013-09-06 10:28:00,65.1,50.9,30.21,SW,221,3.0,5.0,60,0.00,,,0.00,WUHU216DAVISVP2,2013-09-06 14:28:00,
2013-09-06 10:29:00,65.2,51.0,30.21,SW,229,0.0,5.0,60,0.00,,,0.00,WUHU216DAVISVP2,2013-09-06 14:29:00,
2013-09-06 10:31:00,65.3,51.1,30.21,SSW,209,0.0,5.0,60,0.00,,,0.00,WUHU216DAVISVP2,2013-09-06 14:31:00,
2013-09-06 10:32:00,65.3,51.1,30.21,SSW,209,0.0,5.0,60,0.00,,,0.00,WUHU216DAVISVP2,2013-09-06 14:32:00,
2013-09-06 10:34:00,65.5,49.9,30.21,SSW,204,1.0,5.0,57,0.00,,,0.00,WUHU216DAVISVP2,2013-09-06 14:34:00,
2013-09-06 10:36:00,65.6,49.6,30.21,SSW,192,0.0,5.0,56,0.00,,,0.00,WUHU216DAVISVP2,2013-09-06 14:36:00,
2013-09-06 10:37:00,65.6,49.6,30.21,SSW,192,0.0,5.0,56,0.00,,,0.00,WUHU216DAVISVP2,2013-09-06 14:37:00,
2013-09-06 10:39:00,66.2,50.2,30.21,SSE,159,0.0,2.0,56,0.00,,,0.00,WUHU216DAVISVP2,2013-09-06 14:39:00,
2013-09-06 10:41:00,66.4,50.3,30.21,SE,132,0.0,2.0,56,0.00,,,0.00,WUHU216DAVISVP2,2013-09-06 14:41:00,
2013-09-06 10:42:00,66.7,51.1,30.21,SSW,211,0.0,4.0,57,0.00,,,0.00,WUHU216DAVISVP2,2013-09-06 14:42:00,
2013-09-06 10:45:00,67.0,49.4,30.21,SW,214,2.0,4.0,53,0.00,,,0.00,WUHU216DAVISVP2,2013-09-06 14:45:00,
2013-09-06 10:47:00,67.0,49.4,30.20,SSE,157,0.0,4.0,53,0.00,,,0.00,WUHU216DAVISVP2,2013-09-06 14:47:00,
2013-09-06 10:48:00,67.0,49.4,30.21,SW,217,0.0,4.0,53,0.00,,,0.00,WUHU216DAVISVP2,2013-09-06 14:48:00,
2013-09-06 10:50:00,67.1,50.0,30.21,SSE,167,0.0,4.0,54,0.00,,,0.00,WUHU216DAVISVP2,2013-09-06 14:50:00,
2013-09-06 10:52:00,67.1,50.0,30.21,SSE,165,0.0,4.0,54,0.00,,,0.00,WUHU216DAVISVP2,2013-09-06 14:52:00,
2013-09-06 10:54:00,67.2,50.1,30.21,SSE,155,1.0,4.0,54,0.00,,,0.00,WUHU216DAVISVP2,2013-09-06 14:54:00,
2013-09-06 10:56:00,67.4,50.3,30.21,SW,215,0.0,4.0,54,0.00,,,0.00,WUHU216DAVISVP2,2013-09-06 14:56:00,
2013-09-06 10:57:00,67.4,49.8,30.21,SW,214,0.0,4.0,53,0.00,,,0.00,WUHU216DAVISVP2,2013-09-06 14:57:00,
2013-09-06 10:58:00,67.4,49.8,30.21,SW,214,0.0,4.0,53,0.00,,,0.00,WUHU216DAVISVP2,2013-09-06 14:58:00,
2013-09-06 10:59:00,67.4,49.8,30.21,WSW,250,0.0,2.0,53,0.00,,,0.00,WUHU216DAVISVP2,2013-09-06 14:59:00,
2013-09-06 11:01:00,67.4,49.8,30.21,SW,223,0.0,2.0,53,0.00,,,0.00,WUHU216DAVISVP2,2013-09-06 15:01:00,
2013-09-06 11:03:00,67.3,49.7,30.21,South,169,0.0,2.0,53,0.00,,,0.00,WUHU216DAVISVP2,2013-09-06 15:03:00,
2013-09-06 11:04:00,67.3,49.1,30.21,SSE,153,1.0,2.0,52,0.00,,,0.00,WUHU216DAVISVP2,2013-09-06 15:04:00,
2013-09-06 11:06:00,67.4,48.7,30.21,SE,136,0.0,2.0,51,0.00,,,0.00,WUHU216DAVISVP2,2013-09-06 15:06:00,
2013-09-06 11:07:00,67.6,49.9,30.20,SE,136,0.0,2.0,53,0.00,,,0.00,WUHU216DAVISVP2,2013-09-06 15:07:00,
2013-09-06 11:08:00,67.6,49.9,30.20,SE,136,0.0,2.0,53,0.00,,,0.00,WUHU216DAVISVP2,2013-09-06 15:08:00,
2013-09-06 11:13:00,67.9,50.7,30.20,West,268,0.0,4.0,54,0.00,,,0.00,WUHU216DAVISVP2,2013-09-06 15:13:00,
2013-09-06 11:14:00,67.9,50.7,30.20,North,355,1.0,4.0,54,0.00,,,0.00,WUHU216DAVISVP2,2013-09-06 15:14:00,
2013-09-06 11:16:00,67.9,50.7,30.20,East,85,1.0,4.0,54,0.00,,,0.00,WUHU216DAVISVP2,2013-09-06 15:16:00,
2013-09-06 11:18:00,67.9,50.2,30.20,East,88,2.0,4.0,53,0.00,,,0.00,WUHU216DAVISVP2,2013-09-06 15:18:00,
2013-09-06 11:20:00,67.8,50.0,30.20,WSW,243,1.0,5.0,53,0.00,,,0.00,WUHU216DAVISVP2,2013-09-06 15:20:00,
2013-09-06 11:23:00,67.6,49.3,30.20,West,275,2.0,5.0,52,0.00,,,0.00,WUHU216DAVISVP2,2013-09-06 15:23:00,
2013-09-06 11:26:00,67.0,49.8,30.20,West,277,1.0,5.0,54,0.00,,,0.00,WUHU216DAVISVP2,2013-09-06 15:26:00,
2013-09-06 11:28:00,66.9,49.7,30.20,SSW,210,3.0,5.0,54,0.00,,,0.00,WUHU216DAVISVP2,2013-09-06 15:28:00,
2013-09-06 11:29:00,66.8,49.6,30.20,East,94,1.0,5.0,54,0.00,,,0.00,WUHU216DAVISVP2,2013-09-06 15:29:00,
2013-09-06 11:31:00,66.8,49.1,30.20,East,80,1.0,4.0,53,0.00,,,0.00,WUHU216DAVISVP2,2013-09-06 15:31:00,
2013-09-06 11:32:00,66.8,49.1,30.20,East,80,0.0,4.0,53,0.00,,,0.00,WUHU216DAVISVP2,2013-09-06 15:32:00,
2013-09-06 11:33:00,66.8,49.1,30.20,East,80,0.0,4.0,53,0.00,,,0.00,WUHU216DAVISVP2,2013-09-06 15:33:00,
2013-09-06 11:34:00,66.9,48.7,30.20,East,101,1.0,4.0,52,0.00,,,0.00,WUHU216DAVISVP2,2013-09-06 15:34:00,
2013-09-06 11:36:00,67.0,49.3,30.20,SE,126,0.0,5.0,53,0.00,,,0.00,WUHU216DAVISVP2,2013-09-06 15:36:00,
2013-09-06 11:38:00,67.2,50.0,30.20,SE,126,0.0,5.0,54,0.00,,,0.00,WUHU216DAVISVP2,2013-09-06 15:38:00,
2013-09-06 11:42:00,67.7,49.4,30.20,SSE,155,4.0,5.0,52,0.00,,,0.00,WUHU216DAVISVP2,2013-09-06 15:42:00,
2013-09-06 11:43:00,68.0,49.7,30.20,East,96,3.0,5.0,52,0.00,,,0.00,WUHU216DAVISVP2,2013-09-06 15:43:00,
2013-09-06 11:45:00,68.2,49.4,30.20,South,184,0.0,7.0,51,0.00,,,0.00,WUHU216DAVISVP2,2013-09-06 15:45:00,
2013-09-06 11:46:00,68.4,49.6,30.20,East,101,3.0,7.0,51,0.00,,,0.00,WUHU216DAVISVP2,2013-09-06 15:46:00,
2013-09-06 11:48:00,68.4,49.1,30.20,South,171,0.0,7.0,50,0.00,,,0.00,WUHU216DAVISVP2,2013-09-06 15:48:00,
2013-09-06 11:49:00,68.5,50.3,30.20,SSW,209,2.0,7.0,52,0.00,,,0.00,WUHU216DAVISVP2,2013-09-06 15:49:00,
2013-09-06 11:53:00,68.5,49.7,30.19,ESE,112,2.0,7.0,51,0.00,,,0.00,WUHU216DAVISVP2,2013-09-06 15:53:00,
2013-09-06 11:56:00,68.5,48.6,30.19,NNE,32,1.0,6.0,49,0.00,,,0.00,WUHU216DAVISVP2,2013-09-06 15:56:00,
2013-09-06 11:57:00,68.4,49.1,30.19,NNE,29,2.0,6.0,50,0.00,,,0.00,WUHU216DAVISVP2,2013-09-06 15:57:00,
2013-09-06 11:59:00,68.4,49.1,30.19,NNE,29,2.0,6.0,50,0.00,,,0.00,WUHU216DAVISVP2,2013-09-06 15:59:00,
2013-09-06 12:00:00,68.3,49.5,30.19,NNE,30,0.0,6.0,51,0.00,,,0.00,WUHU216DAVISVP2,2013-09-06 16:00:00,
2013-09-06 12:02:00,68.4,50.7,30.19,SW,229,1.0,6.0,53,0.00,,,0.00,WUHU216DAVISVP2,2013-09-06 16:02:00,
2013-09-06 12:04:00,68.5,50.8,30.19,SW,229,2.0,6.0,53,0.00,,,0.00,WUHU216DAVISVP2,2013-09-06 16:04:00,
2013-09-06 12:05:00,68.6,50.9,30.19,SSW,199,0.0,5.0,53,0.00,,,0.00,WUHU216DAVISVP2,2013-09-06 16:05:00,
2013-09-06 12:07:00,68.7,50.4,30.19,South,190,0.0,5.0,52,0.00,,,0.00,WUHU216DAVISVP2,2013-09-06 16:07:00,
2013-09-06 12:08:00,68.9,50.6,30.19,SSE,168,2.0,6.0,52,0.00,,,0.00,WUHU216DAVISVP2,2013-09-06 16:08:00,
2013-09-06 12:09:00,68.9,50.6,30.19,SSE,168,2.0,6.0,52,0.00,,,0.00,WUHU216DAVISVP2,2013-09-06 16:09:00,
2013-09-06 12:12:00,68.9,50.1,30.19,SSW,209,0.0,6.0,51,0.00,,,0.00,WUHU216DAVISVP2,2013-09-06 16:12:00,
2013-09-06 12:14:00,68.9,51.2,30.19,WSW,245,0.0,6.0,53,0.00,,,0.00,WUHU216DAVISVP2,2013-09-06 16:14:00,
2013-09-06 12:17:00,68.8,50.5,30.18,WNW,283,0.0,6.0,52,0.00,,,0.00,WUHU216DAVISVP2,2013-09-06 16:17:00,
2013-09-06 12:18:00,68.9,51.2,30.18,WSW,257,0.0,5.0,53,0.00,,,0.00,WUHU216DAVISVP2,2013-09-06 16:18:00,
2013-09-06 12:19:00,68.9,51.2,30.18,WSW,257,0.0,5.0,53,0.00,,,0.00,WUHU216DAVISVP2,2013-09-06 16:19:00,
2013-09-06 12:20:00,69.0,52.3,30.18,WSW,238,0.0,2.0,55,0.00,,,0.00,WUHU216DAVISVP2,2013-09-06 16:20:00,
2013-09-06 12:21:00,69.2,52.0,30.18,SE,146,1.0,2.0,54,0.00,,,0.00,WUHU216DAVISVP2,2013-09-06 16:21:00,
2013-09-06 12:23:00,69.4,51.1,30.18,SSE,147,0.0,2.0,52,0.00,,,0.00,WUHU216DAVISVP2,2013-09-06 16:23:00,
2013-09-06 12:24:00,69.4,51.1,30.18,SSE,147,0.0,2.0,52,0.00,,,0.00,WUHU216DAVISVP2,2013-09-06 16:24:00,
2013-09-06 12:26:00,69.7,52.9,30.18,SSE,159,0.0,2.0,55,0.00,,,0.00,WUHU216DAVISVP2,2013-09-06 16:26:00,
2013-09-06 12:28:00,69.9,51.6,30.18,South,186,0.0,2.0,52,0.00,,,0.00,WUHU216DAVISVP2,2013-09-06 16:28:00,
2013-09-06 12:29:00,69.9,51.6,30.18,South,186,0.0,2.0,52,0.00,,,0.00,WUHU216DAVISVP2,2013-09-06 16:29:00,
2013-09-06 12:34:00,70.3,50.8,30.18,SSE,162,0.0,7.0,50,0.00,,,0.00,WUHU216DAVISVP2,2013-09-06 16:34:00,
2013-09-06 12:35:00,70.3,51.9,30.18,SSE,162,0.0,7.0,52,0.00,,,0.00,WUHU216DAVISVP2,2013-09-06 16:35:00,
2013-09-06 12:36:00,70.3,51.4,30.18,South,188,0.0,7.0,51,0.00,,,0.00,WUHU216DAVISVP2,2013-09-06 16:36:00,
2013-09-06 12:39:00,70.5,51.0,30.18,SSW,198,0.0,7.0,50,0.00,,,0.00,WUHU216DAVISVP2,2013-09-06 16:39:00,
2013-09-06 12:40:00,70.5,51.0,30.18,SSW,198,0.0,7.0,50,0.00,,,0.00,WUHU216DAVISVP2,2013-09-06 16:40:00,
2013-09-06 12:43:00,70.6,52.7,30.18,ESE,114,2.0,7.0,53,0.00,,,0.00,WUHU216DAVISVP2,2013-09-06 16:43:00,
2013-09-06 12:44:00,70.7,51.8,30.18,East,97,1.0,7.0,51,0.00,,,0.00,WUHU216DAVISVP2,2013-09-06 16:44:00,
2013-09-06 12:45:00,70.7,51.8,30.18,East,97,1.0,7.0,51,0.00,,,0.00,WUHU216DAVISVP2,2013-09-06 16:45:00,
2013-09-06 12:46:00,70.7,51.2,30.18,East,95,0.0,7.0,50,0.00,,,0.00,WUHU216DAVISVP2,2013-09-06 16:46:00,
2013-09-06 12:48:00,70.6,51.1,30.17,ENE,62,0.0,5.0,50,0.00,,,0.00,WUHU216DAVISVP2,2013-09-06 16:48:00,
2013-09-06 12:50:00,70.5,51.0,30.17,SSW,196,0.0,6.0,50,0.00,,,0.00,WUHU216DAVISVP2,2013-09-06 16:50:00,
2013-09-06 12:51:00,70.5,51.0,30.17,SSE,154,2.0,6.0,50,0.00,,,0.00,WUHU216DAVISVP2,2013-09-06 16:51:00,
2013-09-06 12:53:00,70.5,51.0,30.17,South,171,0.0,6.0,50,0.00,,,0.00,WUHU216DAVISVP2,2013-09-06 16:53:00,
2013-09-06 12:55:00,70.5,51.0,30.17,ESE,104,2.0,6.0,50,0.00,,,0.00,WUHU216DAVISVP2,2013-09-06 16:55:00,
2013-09-06 12:57:00,70.6,51.1,30.17,East,101,0.0,6.0,50,0.00,,,0.00,WUHU216DAVISVP2,2013-09-06 16:57:00,
2013-09-06 13:00:00,70.7,51.2,30.17,SSE,147,2.0,8.0,50,0.00,,,0.00,WUHU216DAVISVP2,2013-09-06 17:00:00,
2013-09-06 13:04:00,70.8,51.9,30.17,SSW,211,5.0,8.0,51,0.00,,,0.00,WUHU216DAVISVP2,2013-09-06 17:04:00,
2013-09-06 13:05:00,70.8,51.3,30.17,South,182,0.0,8.0,50,0.00,,,0.00,WUHU216DAVISVP2,2013-09-06 17:05:00,
2013-09-06 13:07:00,70.9,52.5,30.17,East,90,2.0,8.0,52,0.00,,,0.00,WUHU216DAVISVP2,2013-09-06 17:07:00,
2013-09-06 13:09:00,71.0,50.9,30.17,SSW,193,0.0,6.0,49,0.00,,,0.00,WUHU216DAVISVP2,2013-09-06 17:09:00,
2013-09-06 13:10:00,71.0,50.9,30.17,SSW,193,0.0,6.0,49,0.00,,,0.00,WUHU216DAVISVP2,2013-09-06 17:10:00,
2013-09-06 13:11:00,71.0,52.0,30.17,East,92,2.0,6.0,51,0.00,,,0.00,WUHU216DAVISVP2,2013-09-06 17:11:00,
2013-09-06 13:12:00,71.0,52.0,30.17,SSW,207,1.0,6.0,51,0.00,,,0.00,WUHU216DAVISVP2,2013-09-06 17:12:00,
2013-09-06 13:14:00,71.2,52.8,30.17,WSW,248,0.0,6.0,52,0.00,,,0.00,WUHU216DAVISVP2,2013-09-06 17:14:00,
2013-09-06 13:16:00,71.2,52.8,30.17,WSW,248,0.0,6.0,52,0.00,,,0.00,WUHU216DAVISVP2,2013-09-06 17:16:00,
2013-09-06 13:17:00,71.5,52.5,30.17,WSW,248,0.0,6.0,51,0.00,,,0.00,WUHU216DAVISVP2,2013-09-06 17:17:00,
2013-09-06 13:19:00,71.6,52.0,30.16,SW,230,2.0,5.0,50,0.00,,,0.00,WUHU216DAVISVP2,2013-09-06 17:19:00,
2013-09-06 13:20:00,71.7,52.1,30.16,SSW,206,0.0,5.0,50,0.00,,,0.00,WUHU216DAVISVP2,2013-09-06 17:20:00,
2013-09-06 13:21:00,71.7,52.1,30.16,SSW,206,0.0,5.0,50,0.00,,,0.00,WUHU216DAVISVP2,2013-09-06 17:21:00,
2013-09-06 13:22:00,71.8,51.1,30.16,SSE,150,7.0,7.0,48,0.00,,,0.00,WUHU216DAVISVP2,2013-09-06 17:22:00,
2013-09-06 13:23:00,71.9,50.6,30.16,ESE,120,2.0,7.0,47,0.00,,,0.00,WUHU216DAVISVP2,2013-09-06 17:23:00,
2013-09-06 13:25:00,71.9,50.0,30.16,ESE,113,2.0,7.0,46,0.00,,,0.00,WUHU216DAVISVP2,2013-09-06 17:25:00,
2013-09-06 13:26:00,71.9,50.0,30.16,ESE,113,2.0,7.0,46,0.00,,,0.00,WUHU216DAVISVP2,2013-09-06 17:26:00,
2013-09-06 13:27:00,72.1,50.2,30.16,ESE,111,6.0,7.0,46,0.00,,,0.00,WUHU216DAVISVP2,2013-09-06 17:27:00,
2013-09-06 13:29:00,72.1,50.2,30.16,South,179,0.0,7.0,46,0.00,,,0.00,WUHU216DAVISVP2,2013-09-06 17:29:00,
2013-09-06 13:30:00,72.1,51.9,30.16,SSW,209,3.0,7.0,49,0.00,,,0.00,WUHU216DAVISVP2,2013-09-06 17:30:00,
2013-09-06 13:31:00,72.1,51.9,30.16,SSW,209,3.0,7.0,49,0.00,,,0.00,WUHU216DAVISVP2,2013-09-06 17:31:00,
2013-09-06 13:32:00,72.1,50.8,30.16,SSW,194,0.0,7.0,47,0.00,,,0.00,WUHU216DAVISVP2,2013-09-06 17:32:00,
2013-09-06 13:33:00,72.2,51.5,30.16,SE,126,0.0,7.0,48,0.00,,,0.00,WUHU216DAVISVP2,2013-09-06 17:33:00,
2013-09-06 13:36:00,72.3,51.5,30.16,SSE,148,0.0,7.0,48,0.00,,,0.00,WUHU216DAVISVP2,2013-09-06 17:36:00,
2013-09-06 13:38:00,72.5,51.7,30.16,SE,144,0.0,6.0,48,0.00,,,0.00,WUHU216DAVISVP2,2013-09-06 17:38:00,
2013-09-06 13:40:00,72.7,50.7,30.15,ENE,70,1.0,4.0,46,0.00,,,0.00,WUHU216DAVISVP2,2013-09-06 17:40:00,
2013-09-06 13:41:00,72.7,50.7,30.15,ENE,70,1.0,4.0,46,0.00,,,0.00,WUHU216DAVISVP2,2013-09-06 17:41:00,
2013-09-06 13:43:00,72.7,50.7,30.16,ESE,116,4.0,7.0,46,0.00,,,0.00,WUHU216DAVISVP2,2013-09-06 17:43:00,
2013-09-06 13:45:00,72.6,50.6,30.16,South,169,5.0,7.0,46,0.00,,,0.00,WUHU216DAVISVP2,2013-09-06 17:45:00,
2013-09-06 13:46:00,72.6,50.6,30.16,South,169,5.0,7.0,46,0.00,,,0.00,WUHU216DAVISVP2,2013-09-06 17:46:00,
2013-09-06 13:47:00,72.6,50.6,30.15,SW,235,1.0,7.0,46,0.00,,,0.00,WUHU216DAVISVP2,2013-09-06 17:47:00,
2013-09-06 13:49:00,72.6,51.2,30.15,South,190,1.0,7.0,47,0.00,,,0.00,WUHU216DAVISVP2,2013-09-06 17:49:00,
2013-09-06 13:50:00,72.7,51.9,30.15,South,178,2.0,7.0,48,0.00,,,0.00,WUHU216DAVISVP2,2013-09-06 17:50:00,
2013-09-06 13:51:00,72.7,51.9,30.15,South,178,2.0,7.0,48,0.00,,,0.00,WUHU216DAVISVP2,2013-09-06 17:51:00,
2013-09-06 13:53:00,72.7,50.1,30.15,NNE,31,2.0,6.0,45,0.00,,,0.00,WUHU216DAVISVP2,2013-09-06 17:53:00,
2013-09-06 13:56:00,72.6,50.6,30.15,NE,41,2.0,6.0,46,0.00,,,0.00,WUHU216DAVISVP2,2013-09-06 17:56:00,
2013-09-06 13:58:00,72.5,51.1,30.15,NE,44,1.0,6.0,47,0.00,,,0.00,WUHU216DAVISVP2,2013-09-06 17:58:00,
2013-09-06 13:59:00,72.4,51.0,30.15,NE,52,2.0,6.0,47,0.00,,,0.00,WUHU216DAVISVP2,2013-09-06 17:59:00,
2013-09-06 14:01:00,72.4,51.0,30.15,NNE,32,2.0,5.0,47,0.00,,,0.00,WUHU216DAVISVP2,2013-09-06 18:01:00,
2013-09-06 14:04:00,72.3,50.4,30.15,ENE,59,1.0,5.0,46,0.00,,,0.00,WUHU216DAVISVP2,2013-09-06 18:04:00,
2013-09-06 14:06:00,72.2,51.5,30.14,SSW,210,0.0,5.0,48,0.00,,,0.00,WUHU216DAVISVP2,2013-09-06 18:06:00,
2013-09-06 14:07:00,72.2,50.3,30.14,SE,124,1.0,5.0,46,0.00,,,0.00,WUHU216DAVISVP2,2013-09-06 18:07:00,
2013-09-06 14:09:00,72.4,50.4,30.15,ESE,111,2.0,5.0,46,0.00,,,0.00,WUHU216DAVISVP2,2013-09-06 18:09:00,
2013-09-06 14:12:00,72.5,50.5,30.14,South,169,0.0,6.0,46,0.00,,,0.00,WUHU216DAVISVP2,2013-09-06 18:12:00,
2013-09-06 14:15:00,72.6,50.6,30.14,SSW,192,1.0,6.0,46,0.00,,,0.00,WUHU216DAVISVP2,2013-09-06 18:15:00,
2013-09-06 14:17:00,72.8,52.0,30.14,SSE,153,2.0,6.0,48,0.00,,,0.00,WUHU216DAVISVP2,2013-09-06 18:17:00,
2013-09-06 14:18:00,72.9,50.3,30.14,SSE,151,1.0,6.0,45,0.00,,,0.00,WUHU216DAVISVP2,2013-09-06 18:18:00,
2013-09-06 14:21:00,73.2,51.8,30.14,ESE,119,2.0,6.0,47,0.00,,,0.00,WUHU216DAVISVP2,2013-09-06 18:21:00,
2013-09-06 14:22:00,73.2,51.8,30.14,ESE,119,2.0,6.0,47,0.00,,,0.00,WUHU216DAVISVP2,2013-09-06 18:22:00,
2013-09-06 14:24:00,73.5,49.6,30.13,ESE,116,1.0,6.0,43,0.00,,,0.00,WUHU216DAVISVP2,2013-09-06 18:24:00,
2013-09-06 14:27:00,73.6,49.7,30.13,SE,127,0.0,5.0,43,0.00,,,0.00,WUHU216DAVISVP2,2013-09-06 18:27:00,
2013-09-06 14:28:00,73.5,48.9,30.13,NE,49,0.0,5.0,42,0.00,,,0.00,WUHU216DAVISVP2,2013-09-06 18:28:00,
2013-09-06 14:32:00,73.4,50.1,30.13,ENE,65,0.0,5.0,44,0.00,,,0.00,WUHU216DAVISVP2,2013-09-06 18:32:00,
2013-09-06 14:34:00,73.5,50.2,30.13,ENE,61,1.0,4.0,44,0.00,,,0.00,WUHU216DAVISVP2,2013-09-06 18:34:00,
2013-09-06 14:35:00,73.5,50.2,30.13,ENE,61,0.0,4.0,44,0.00,,,0.00,WUHU216DAVISVP2,2013-09-06 18:35:00,
2013-09-06 14:37:00,73.6,50.3,30.13,East,100,2.0,4.0,44,0.00,,,0.00,WUHU216DAVISVP2,2013-09-06 18:37:00,
2013-09-06 14:38:00,73.6,49.7,30.13,SE,129,0.0,5.0,43,0.00,,,0.00,WUHU216DAVISVP2,2013-09-06 18:38:00,
2013-09-06 14:40:00,73.7,50.4,30.13,SE,142,2.0,6.0,44,0.00,,,0.00,WUHU216DAVISVP2,2013-09-06 18:40:00,
2013-09-06 14:42:00,73.8,51.1,30.13,SSW,201,1.0,6.0,45,0.00,,,0.00,WUHU216DAVISVP2,2013-09-06 18:42:00,
2013-09-06 14:45:00,74.3,52.8,30.13,West,260,1.0,6.0,47,0.00,,,0.00,WUHU216DAVISVP2,2013-09-06 18:45:00,
2013-09-06 14:47:00,74.6,51.8,30.13,WSW,239,2.0,6.0,45,0.00,,,0.00,WUHU216DAVISVP2,2013-09-06 18:47:00,
2013-09-06 14:48:00,74.7,50.7,30.13,SW,222,0.0,6.0,43,0.00,,,0.00,WUHU216DAVISVP2,2013-09-06 18:48:00,
2013-09-06 14:51:00,74.9,50.2,30.12,SSE,157,0.0,5.0,42,0.00,,,0.00,WUHU216DAVISVP2,2013-09-06 18:51:00,
2013-09-06 14:52:00,74.9,50.2,30.12,SSE,157,0.0,5.0,42,0.00,,,0.00,WUHU216DAVISVP2,2013-09-06 18:52:00,
2013-09-06 14:53:00,74.9,51.5,30.12,ESE,111,2.0,5.0,44,0.00,,,0.00,WUHU216DAVISVP2,2013-09-06 18:53:00,
2013-09-06 14:55:00,75.0,50.3,30.12,East,94,0.0,5.0,42,0.00,,,0.00,WUHU216DAVISVP2,2013-09-06 18:55:00,
2013-09-06 14:56:00,75.0,49.6,30.12,East,92,0.0,6.0,41,0.00,,,0.00,WUHU216DAVISVP2,2013-09-06 18:56:00,
2013-09-06 14:57:00,75.0,49.6,30.12,East,92,0.0,6.0,41,0.00,,,0.00,WUHU216DAVISVP2,2013-09-06 18:57:00,
2013-09-06 14:58:00,75.0,51.6,30.12,South,179,1.0,6.0,44,0.00,,,0.00,WUHU216DAVISVP2,2013-09-06 18:58:00,
2013-09-06 14:59:00,75.0,50.3,30.12,South,184,5.0,6.0,42,0.00,,,0.00,WUHU216DAVISVP2,2013-09-06 18:59:00,
2013-09-06 15:01:00,75.0,50.3,30.12,SSE,150,3.0,7.0,42,0.00,,,0.00,WUHU216DAVISVP2,2013-09-06 19:01:00,
2013-09-06 15:03:00,74.9,50.8,30.12,SSW,193,0.0,7.0,43,0.00,,,0.00,WUHU216DAVISVP2,2013-09-06 19:03:00,
2013-09-06 15:05:00,74.9,50.8,30.12,WSW,248,1.0,7.0,43,0.00,,,0.00,WUHU216DAVISVP2,2013-09-06 19:05:00,
2013-09-06 15:06:00,74.9,51.5,30.12,SSE,160,0.0,7.0,44,0.00,,,0.00,WUHU216DAVISVP2,2013-09-06 19:06:00,
2013-09-06 15:08:00,74.9,51.5,30.12,SSE,160,0.0,7.0,44,0.00,,,0.00,WUHU216DAVISVP2,2013-09-06 19:08:00,
2013-09-06 15:10:00,75.0,50.3,30.12,ESE,107,4.0,7.0,42,0.00,,,0.00,WUHU216DAVISVP2,2013-09-06 19:10:00,
2013-09-06 15:11:00,75.0,50.9,30.11,ESE,111,1.0,5.0,43,0.00,,,0.00,WUHU216DAVISVP2,2013-09-06 19:11:00,
2013-09-06 15:13:00,75.0,49.6,30.11,ESE,117,0.0,5.0,41,0.00,,,0.00,WUHU216DAVISVP2,2013-09-06 19:13:00,
2013-09-06 15:14:00,74.9,49.5,30.11,ESE,115,0.0,5.0,41,0.00,,,0.00,WUHU216DAVISVP2,2013-09-06 19:14:00,
2013-09-06 15:16:00,74.9,50.2,30.11,SW,227,1.0,5.0,42,0.00,,,0.00,WUHU216DAVISVP2,2013-09-06 19:16:00,
2013-09-06 15:17:00,74.9,50.8,30.11,SW,214,0.0,5.0,43,0.00,,,0.00,WUHU216DAVISVP2,2013-09-06 19:17:00,
2013-09-06 15:18:00,74.9,50.8,30.11,SW,214,0.0,5.0,43,0.00,,,0.00,WUHU216DAVISVP2,2013-09-06 19:18:00,
2013-09-06 15:21:00,74.8,50.1,30.10,WNW,295,5.0,7.0,42,0.00,,,0.00,WUHU216DAVISVP2,2013-09-06 19:21:00,
2013-09-06 15:23:00,74.8,50.1,30.11,WNW,288,5.0,7.0,42,0.00,,,0.00,WUHU216DAVISVP2,2013-09-06 19:23:00,
2013-09-06 15:25:00,74.4,50.4,30.10,West,277,0.0,7.0,43,0.00,,,0.00,WUHU216DAVISVP2,2013-09-06 19:25:00,
2013-09-06 15:27:00,74.3,50.3,30.10,West,267,5.0,8.0,43,0.00,,,0.00,WUHU216DAVISVP2,2013-09-06 19:27:00,
2013-09-06 15:28:00,74.4,51.7,30.11,WSW,250,0.0,8.0,45,0.00,,,0.00,WUHU216DAVISVP2,2013-09-06 19:28:00,
2013-09-06 15:30:00,74.6,51.2,30.11,SSW,196,2.0,8.0,44,0.00,,,0.00,WUHU216DAVISVP2,2013-09-06 19:30:00,
2013-09-06 15:33:00,74.9,52.1,30.10,West,277,0.0,8.0,45,0.00,,,0.00,WUHU216DAVISVP2,2013-09-06 19:33:00,
2013-09-06 15:35:00,75.0,50.9,30.10,West,275,0.0,8.0,43,0.00,,,0.00,WUHU216DAVISVP2,2013-09-06 19:35:00,
2013-09-06 15:36:00,75.2,51.1,30.10,SSE,152,3.0,8.0,43,0.00,,,0.00,WUHU216DAVISVP2,2013-09-06 19:36:00,
2013-09-06 15:38:00,75.4,50.6,30.10,SSW,206,1.0,6.0,42,0.00,,,0.00,WUHU216DAVISVP2,2013-09-06 19:38:00,
2013-09-06 15:42:00,75.7,50.3,30.10,SW,220,6.0,7.0,41,0.00,,,0.00,WUHU216DAVISVP2,2013-09-06 19:42:00,
2013-09-06 15:43:00,75.8,51.0,30.10,WSW,248,2.0,7.0,42,0.00,,,0.00,WUHU216DAVISVP2,2013-09-06 19:43:00,
2013-09-06 15:44:00,75.8,51.0,30.10,WSW,248,2.0,7.0,42,0.00,,,0.00,WUHU216DAVISVP2,2013-09-06 19:44:00,
2013-09-06 15:46:00,76.0,49.8,30.10,WNW,288,0.0,7.0,40,0.00,,,0.00,WUHU216DAVISVP2,2013-09-06 19:46:00,
2013-09-06 15:49:00,76.0,49.8,30.10,SSW,197,3.0,7.0,40,0.00,,,0.00,WUHU216DAVISVP2,2013-09-06 19:49:00,
2013-09-06 15:50:00,76.0,50.5,30.10,SSE,148,4.0,7.0,41,0.00,,,0.00,WUHU216DAVISVP2,2013-09-06 19:50:00,
2013-09-06 15:52:00,76.1,50.6,30.10,WSW,257,0.0,6.0,41,0.00,,,0.00,WUHU216DAVISVP2,2013-09-06 19:52:00,
2013-09-06 15:54:00,76.1,50.6,30.09,South,190,0.0,6.0,41,0.00,,,0.00,WUHU216DAVISVP2,2013-09-06 19:54:00,
2013-09-06 15:55:00,76.2,50.7,30.09,SE,135,0.0,5.0,41,0.00,,,0.00,WUHU216DAVISVP2,2013-09-06 19:55:00,
2013-09-06 15:58:00,76.2,50.0,30.09,SE,128,0.0,6.0,40,0.00,,,0.00,WUHU216DAVISVP2,2013-09-06 19:58:00,
2013-09-06 15:59:00,76.2,50.0,30.09,SE,128,0.0,6.0,40,0.00,,,0.00,WUHU216DAVISVP2,2013-09-06 19:59:00,
2013-09-06 16:01:00,76.4,50.9,30.10,WNW,298,2.0,6.0,41,0.00,,,0.00,WUHU216DAVISVP2,2013-09-06 20:01:00,
2013-09-06 16:02:00,76.4,51.6,30.10,SW,232,2.0,6.0,42,0.00,,,0.00,WUHU216DAVISVP2,2013-09-06 20:02:00,
2013-09-06 16:04:00,76.4,52.2,30.10,West,259,1.0,6.0,43,0.00,,,0.00,WUHU216DAVISVP2,2013-09-06 20:04:00,
2013-09-06 16:05:00,76.5,52.3,30.10,WSW,244,0.0,6.0,43,0.00,,,0.00,WUHU216DAVISVP2,2013-09-06 20:05:00,
2013-09-06 16:07:00,76.6,52.4,30.10,West,270,0.0,5.0,43,0.00,,,0.00,WUHU216DAVISVP2,2013-09-06 20:07:00,
2013-09-06 16:08:00,76.6,52.4,30.10,West,270,0.0,5.0,43,0.00,,,0.00,WUHU216DAVISVP2,2013-09-06 20:08:00,
2013-09-06 16:09:00,76.6,52.4,30.10,West,270,0.0,5.0,43,0.00,,,0.00,WUHU216DAVISVP2,2013-09-06 20:09:00,
2013-09-06 16:10:00,76.7,51.8,30.10,WSW,254,0.0,5.0,42,0.00,,,0.00,WUHU216DAVISVP2,2013-09-06 20:10:00,
2013-09-06 16:12:00,76.8,51.9,30.09,SSW,211,1.0,7.0,42,0.00,,,0.00,WUHU216DAVISVP2,2013-09-06 20:12:00,
2013-09-06 16:14:00,76.9,52.0,30.09,SSE,161,5.0,7.0,42,0.00,,,0.00,WUHU216DAVISVP2,2013-09-06 20:14:00,
2013-09-06 16:16:00,77.1,50.1,30.09,SSW,195,0.0,7.0,39,0.00,,,0.00,WUHU216DAVISVP2,2013-09-06 20:16:00,
2013-09-06 16:18:00,77.2,48.8,30.09,East,92,1.0,7.0,37,0.00,,,0.00,WUHU216DAVISVP2,2013-09-06 20:18:00,
2013-09-06 16:19:00,77.2,48.8,30.09,East,92,1.0,7.0,37,0.00,,,0.00,WUHU216DAVISVP2,2013-09-06 20:19:00,
2013-09-06 16:20:00,77.2,50.2,30.09,West,274,0.0,7.0,39,0.00,,,0.00,WUHU216DAVISVP2,2013-09-06 20:20:00,
2013-09-06 16:23:00,77.4,50.4,30.09,WSW,250,2.0,6.0,39,0.00,,,0.00,WUHU216DAVISVP2,2013-09-06 20:23:00,
2013-09-06 16:24:00,77.5,51.9,30.09,WSW,256,0.0,6.0,41,0.00,,,0.00,WUHU216DAVISVP2,2013-09-06 20:24:00,
2013-09-06 16:26:00,77.6,49.9,30.09,WSW,250,0.0,5.0,38,0.00,,,0.00,WUHU216DAVISVP2,2013-09-06 20:26:00,
2013-09-06 16:29:00,77.8,51.5,30.09,SW,215,0.0,5.0,40,0.00,,,0.00,WUHU216DAVISVP2,2013-09-06 20:29:00,
2013-09-06 16:31:00,77.9,50.8,30.09,SW,217,1.0,5.0,39,0.00,,,0.00,WUHU216DAVISVP2,2013-09-06 20:31:00,
2013-09-06 16:33:00,78.2,51.1,30.09,WSW,251,2.0,5.0,39,0.00,,,0.00,WUHU216DAVISVP2,2013-09-06 20:33:00,
2013-09-06 16:35:00,78.3,51.9,30.09,SW,236,0.0,5.0,40,0.00,,,0.00,WUHU216DAVISVP2,2013-09-06 20:35:00,
2013-09-06 16:36:00,78.4,51.3,30.09,West,267,3.0,5.0,39,0.00,,,0.00,WUHU216DAVISVP2,2013-09-06 20:36:00,
2013-09-06 16:40:00,78.7,52.3,30.08,SSE,159,0.0,6.0,40,0.00,,,0.00,WUHU216DAVISVP2,2013-09-06 20:40:00,
2013-09-06 16:41:00,78.8,50.9,30.08,West,274,2.0,6.0,38,0.00,,,0.00,WUHU216DAVISVP2,2013-09-06 20:41:00,
2013-09-06 16:43:00,78.7,50.1,30.09,SSE,150,5.0,6.0,37,0.00,,,0.00,WUHU216DAVISVP2,2013-09-06 20:43:00,
2013-09-06 16:45:00,78.6,50.8,30.09,SW,214,1.0,6.0,38,0.00,,,0.00,WUHU216DAVISVP2,2013-09-06 20:45:00,
2013-09-06 16:50:00,78.2,49.7,30.09,SW,223,2.0,5.0,37,0.00,,,0.00,WUHU216DAVISVP2,2013-09-06 20:50:00,
2013-09-06 16:52:00,77.9,49.4,30.09,SE,129,0.0,5.0,37,0.00,,,0.00,WUHU216DAVISVP2,2013-09-06 20:52:00,
2013-09-06 16:55:00,77.7,50.0,30.09,SW,228,1.0,4.0,38,0.00,,,0.00,WUHU216DAVISVP2,2013-09-06 20:55:00,
2013-09-06 16:56:00,77.7,50.0,30.09,SSE,157,3.0,4.0,38,0.00,,,0.00,WUHU216DAVISVP2,2013-09-06 20:56:00,
2013-09-06 16:57:00,77.7,49.2,30.09,SSW,192,2.0,7.0,37,0.00,,,0.00,WUHU216DAVISVP2,2013-09-06 20:57:00,
2013-09-06 16:59:00,77.7,48.5,30.09,SSE,168,0.0,7.0,36,0.00,,,0.00,WUHU216DAVISVP2,2013-09-06 20:59:00,
2013-09-06 17:00:00,77.7,48.5,30.09,SSE,168,0.0,7.0,36,0.00,,,0.00,WUHU216DAVISVP2,2013-09-06 21:00:00,
2013-09-06 17:02:00,77.7,50.0,30.09,South,169,2.0,7.0,38,0.00,,,0.00,WUHU216DAVISVP2,2013-09-06 21:02:00,
2013-09-06 17:04:00,77.7,50.7,30.09,SSE,164,0.0,7.0,39,0.00,,,0.00,WUHU216DAVISVP2,2013-09-06 21:04:00,
2013-09-06 17:05:00,77.8,49.3,30.09,WSW,255,1.0,7.0,37,0.00,,,0.00,WUHU216DAVISVP2,2013-09-06 21:05:00,
2013-09-06 17:08:00,77.8,50.0,30.08,South,182,0.0,6.0,38,0.00,,,0.00,WUHU216DAVISVP2,2013-09-06 21:08:00,
2013-09-06 17:10:00,78.0,50.2,30.08,SSW,193,0.0,6.0,38,0.00,,,0.00,WUHU216DAVISVP2,2013-09-06 21:10:00,
2013-09-06 17:13:00,78.2,49.7,30.08,SSE,154,2.0,5.0,37,0.00,,,0.00,WUHU216DAVISVP2,2013-09-06 21:13:00,
2013-09-06 17:14:00,78.3,50.5,30.08,SSW,212,0.0,5.0,38,0.00,,,0.00,WUHU216DAVISVP2,2013-09-06 21:14:00,
2013-09-06 17:15:00,78.3,50.5,30.08,SSW,212,0.0,5.0,38,0.00,,,0.00,WUHU216DAVISVP2,2013-09-06 21:15:00,
2013-09-06 17:17:00,78.3,50.5,30.08,South,190,0.0,5.0,38,0.00,,,0.00,WUHU216DAVISVP2,2013-09-06 21:17:00,
2013-09-06 17:18:00,78.4,49.8,30.08,South,170,1.0,5.0,37,0.00,,,0.00,WUHU216DAVISVP2,2013-09-06 21:18:00,
2013-09-06 17:20:00,78.3,49.8,30.08,South,170,3.0,5.0,37,0.00,,,0.00,WUHU216DAVISVP2,2013-09-06 21:20:00,
2013-09-06 17:23:00,78.2,49.7,30.08,SE,145,0.0,7.0,37,0.00,,,0.00,WUHU216DAVISVP2,2013-09-06 21:23:00,
2013-09-06 17:25:00,78.1,50.3,30.08,ESE,109,0.0,7.0,38,0.00,,,0.00,WUHU216DAVISVP2,2013-09-06 21:25:00,
2013-09-06 17:26:00,78.1,50.3,30.08,ESE,109,0.0,7.0,38,0.00,,,0.00,WUHU216DAVISVP2,2013-09-06 21:26:00,
2013-09-06 17:27:00,78.1,50.3,30.08,SSE,167,1.0,7.0,38,0.00,,,0.00,WUHU216DAVISVP2,2013-09-06 21:27:00,
2013-09-06 17:31:00,78.0,50.2,30.07,SE,136,4.0,7.0,38,0.00,,,0.00,WUHU216DAVISVP2,2013-09-06 21:31:00,
2013-09-06 17:33:00,77.9,50.8,30.07,SE,128,1.0,5.0,39,0.00,,,0.00,WUHU216DAVISVP2,2013-09-06 21:33:00,
2013-09-06 17:36:00,77.8,50.0,30.07,SSE,161,0.0,5.0,38,0.00,,,0.00,WUHU216DAVISVP2,2013-09-06 21:36:00,
2013-09-06 17:37:00,77.7,50.7,30.07,ENE,76,1.0,5.0,39,0.00,,,0.00,WUHU216DAVISVP2,2013-09-06 21:37:00,
2013-09-06 17:39:00,77.6,49.1,30.07,South,180,0.0,5.0,37,0.00,,,0.00,WUHU216DAVISVP2,2013-09-06 21:39:00,
2013-09-06 17:41:00,77.5,49.8,30.07,WSW,245,1.0,5.0,38,0.00,,,0.00,WUHU216DAVISVP2,2013-09-06 21:41:00,
2013-09-06 17:45:00,77.6,51.3,30.08,SSW,205,0.0,3.0,40,0.00,,,0.00,WUHU216DAVISVP2,2013-09-06 21:45:00,
2013-09-06 17:46:00,77.6,51.3,30.08,SSW,205,0.0,3.0,40,0.00,,,0.00,WUHU216DAVISVP2,2013-09-06 21:46:00,
2013-09-06 17:49:00,77.8,51.5,30.08,SSW,192,0.0,4.0,40,0.00,,,0.00,WUHU216DAVISVP2,2013-09-06 21:49:00,
2013-09-06 17:51:00,77.8,50.0,30.08,SE,146,0.0,4.0,38,0.00,,,0.00,WUHU216DAVISVP2,2013-09-06 21:51:00,
2013-09-06 17:55:00,78.0,50.9,30.08,West,260,1.0,5.0,39,0.00,,,0.00,WUHU216DAVISVP2,2013-09-06 21:55:00,
2013-09-06 17:56:00,78.1,50.3,30.08,SSW,209,2.0,5.0,38,0.00,,,0.00,WUHU216DAVISVP2,2013-09-06 21:56:00,
2013-09-06 17:57:00,78.1,50.3,30.08,SSW,209,0.0,5.0,38,0.00,,,0.00,WUHU216DAVISVP2,2013-09-06 21:57:00,
2013-09-06 17:59:00,78.1,50.3,30.08,WSW,248,1.0,5.0,38,0.00,,,0.00,WUHU216DAVISVP2,2013-09-06 21:59:00,
2013-09-06 18:00:00,78.1,51.7,30.07,WSW,247,0.0,5.0,40,0.00,,,0.00,WUHU216DAVISVP2,2013-09-06 22:00:00,
2013-09-06 18:01:00,78.1,51.7,30.07,WSW,247,0.0,5.0,40,0.00,,,0.00,WUHU216DAVISVP2,2013-09-06 22:01:00,
2013-09-06 18:02:00,78.1,50.3,30.08,SW,234,1.0,5.0,38,0.00,,,0.00,WUHU216DAVISVP2,2013-09-06 22:02:00,
2013-09-06 18:03:00,78.2,50.4,30.08,ESE,104,5.0,5.0,38,0.00,,,0.00,WUHU216DAVISVP2,2013-09-06 22:03:00,
2013-09-06 18:07:00,78.1,49.6,30.08,SW,221,1.0,7.0,37,0.00,,,0.00,WUHU216DAVISVP2,2013-09-06 22:07:00,
2013-09-06 18:09:00,77.9,49.4,30.07,SE,139,4.0,7.0,37,0.00,,,0.00,WUHU216DAVISVP2,2013-09-06 22:09:00,
2013-09-06 18:10:00,77.8,50.0,30.07,SSE,157,0.0,7.0,38,0.00,,,0.00,WUHU216DAVISVP2,2013-09-06 22:10:00,
2013-09-06 18:12:00,77.8,50.0,30.07,SSE,157,0.0,7.0,38,0.00,,,0.00,WUHU216DAVISVP2,2013-09-06 22:12:00,
2013-09-06 18:13:00,77.6,49.9,30.07,South,190,1.0,7.0,38,0.00,,,0.00,WUHU216DAVISVP2,2013-09-06 22:13:00,
2013-09-06 18:14:00,77.6,49.9,30.07,South,190,1.0,6.0,38,0.00,,,0.00,WUHU216DAVISVP2,2013-09-06 22:14:00,
2013-09-06 18:16:00,77.5,50.5,30.07,South,169,2.0,6.0,39,0.00,,,0.00,WUHU216DAVISVP2,2013-09-06 22:16:00,
2013-09-06 18:17:00,77.5,50.5,30.07,South,169,2.0,6.0,39,0.00,,,0.00,WUHU216DAVISVP2,2013-09-06 22:17:00,
2013-09-06 18:19:00,77.3,49.6,30.07,SSE,148,0.0,6.0,38,0.00,,,0.00,WUHU216DAVISVP2,2013-09-06 22:19:00,
2013-09-06 18:21:00,77.2,50.2,30.07,SE,142,0.0,5.0,39,0.00,,,0.00,WUHU216DAVISVP2,2013-09-06 22:21:00,
2013-09-06 18:22:00,77.2,50.2,30.07,SE,142,0.0,5.0,39,0.00,,,0.00,WUHU216DAVISVP2,2013-09-06 22:22:00,
2013-09-06 18:24:00,77.1,50.1,30.07,SSW,196,0.0,5.0,39,0.00,,,0.00,WUHU216DAVISVP2,2013-09-06 22:24:00,
2013-09-06 18:26:00,77.1,50.8,30.08,SSE,152,0.0,5.0,40,0.00,,,0.00,WUHU216DAVISVP2,2013-09-06 22:26:00,
2013-09-06 18:27:00,77.1,50.8,30.08,SSE,152,0.0,5.0,40,0.00,,,0.00,WUHU216DAVISVP2,2013-09-06 22:27:00,
2013-09-06 18:30:00,77.1,50.8,30.07,South,184,2.0,5.0,40,0.00,,,0.00,WUHU216DAVISVP2,2013-09-06 22:30:00,
2013-09-06 18:31:00,77.1,50.1,30.07,SE,146,4.0,5.0,39,0.00,,,0.00,WUHU216DAVISVP2,2013-09-06 22:31:00,
2013-09-06 18:32:00,77.1,50.1,30.07,SE,146,4.0,5.0,39,0.00,,,0.00,WUHU216DAVISVP2,2013-09-06 22:32:00,
2013-09-06 18:33:00,77.0,50.7,30.07,ESE,113,0.0,5.0,40,0.00,,,0.00,WUHU216DAVISVP2,2013-09-06 22:33:00,
2013-09-06 18:34:00,77.0,50.7,30.07,East,98,0.0,5.0,40,0.00,,,0.00,WUHU216DAVISVP2,2013-09-06 22:34:00,
2013-09-06 18:36:00,77.0,51.4,30.07,East,98,0.0,5.0,41,0.00,,,0.00,WUHU216DAVISVP2,2013-09-06 22:36:00,
2013-09-06 18:37:00,77.0,51.4,30.07,East,98,0.0,5.0,41,0.00,,,0.00,WUHU216DAVISVP2,2013-09-06 22:37:00,
2013-09-06 18:38:00,77.0,52.1,30.07,East,98,0.0,5.0,42,0.00,,,0.00,WUHU216DAVISVP2,2013-09-06 22:38:00,
2013-09-06 18:41:00,77.1,51.5,30.07,East,98,0.0,5.0,41,0.00,,,0.00,WUHU216DAVISVP2,2013-09-06 22:41:00,
2013-09-06 18:42:00,77.1,51.5,30.07,East,98,0.0,5.0,41,0.00,,,0.00,WUHU216DAVISVP2,2013-09-06 22:42:00,
2013-09-06 18:43:00,77.2,51.6,30.07,ESE,106,1.0,2.0,41,0.00,,,0.00,WUHU216DAVISVP2,2013-09-06 22:43:00,
2013-09-06 18:45:00,77.2,50.9,30.07,SE,136,2.0,6.0,40,0.00,,,0.00,WUHU216DAVISVP2,2013-09-06 22:45:00,
2013-09-06 18:47:00,77.1,50.8,30.07,South,191,1.0,6.0,40,0.00,,,0.00,WUHU216DAVISVP2,2013-09-06 22:47:00,
2013-09-06 18:48:00,77.1,50.8,30.06,SE,138,1.0,6.0,40,0.00,,,0.00,WUHU216DAVISVP2,2013-09-06 22:48:00,
2013-09-06 18:50:00,76.9,50.6,30.06,SSE,151,2.0,6.0,40,0.00,,,0.00,WUHU216DAVISVP2,2013-09-06 22:50:00,
2013-09-06 18:52:00,76.7,50.5,30.06,SSW,200,0.0,6.0,40,0.00,,,0.00,WUHU216DAVISVP2,2013-09-06 22:52:00,
2013-09-06 18:53:00,76.6,50.4,30.06,SSW,195,0.0,6.0,40,0.00,,,0.00,WUHU216DAVISVP2,2013-09-06 22:53:00,
2013-09-06 18:57:00,76.3,50.1,30.06,SSE,161,2.0,5.0,40,0.00,,,0.00,WUHU216DAVISVP2,2013-09-06 22:57:00,
2013-09-06 18:58:00,76.2,50.7,30.06,South,174,2.0,5.0,41,0.00,,,0.00,WUHU216DAVISVP2,2013-09-06 22:58:00,
2013-09-06 19:00:00,76.1,51.3,30.06,SE,126,0.0,5.0,42,0.00,,,0.00,WUHU216DAVISVP2,2013-09-06 23:00:00,
2013-09-06 19:01:00,76.0,50.5,30.06,SSE,156,1.0,5.0,41,0.00,,,0.00,WUHU216DAVISVP2,2013-09-06 23:01:00,
2013-09-06 19:03:00,76.0,50.5,30.06,SSE,156,1.0,5.0,41,0.00,,,0.00,WUHU216DAVISVP2,2013-09-06 23:03:00,
2013-09-06 19:06:00,75.8,51.0,30.06,SSE,168,0.0,5.0,42,0.00,,,0.00,WUHU216DAVISVP2,2013-09-06 23:06:00,
2013-09-06 19:07:00,75.8,51.0,30.06,SSE,168,0.0,3.0,42,0.00,,,0.00,WUHU216DAVISVP2,2013-09-06 23:07:00,
2013-09-06 19:08:00,75.8,51.0,30.06,SSE,168,0.0,3.0,42,0.00,,,0.00,WUHU216DAVISVP2,2013-09-06 23:08:00,
2013-09-06 19:09:00,75.7,51.6,30.05,SSE,168,0.0,3.0,43,0.00,,,0.00,WUHU216DAVISVP2,2013-09-06 23:09:00,
2013-09-06 19:11:00,75.7,51.6,30.05,SSE,167,0.0,3.0,43,0.00,,,0.00,WUHU216DAVISVP2,2013-09-06 23:11:00,
2013-09-06 19:13:00,75.7,51.6,30.05,SSE,167,0.0,2.0,43,0.00,,,0.00,WUHU216DAVISVP2,2013-09-06 23:13:00,
2013-09-06 19:14:00,75.7,52.2,30.06,SE,132,0.0,4.0,44,0.00,,,0.00,WUHU216DAVISVP2,2013-09-06 23:14:00,
2013-09-06 19:16:00,75.7,52.2,30.06,SE,132,0.0,4.0,44,0.00,,,0.00,WUHU216DAVISVP2,2013-09-06 23:16:00,
2013-09-06 19:18:00,75.6,52.1,30.06,SE,133,0.0,4.0,44,0.00,,,0.00,WUHU216DAVISVP2,2013-09-06 23:18:00,
2013-09-06 19:19:00,75.7,52.2,30.06,SE,133,0.0,4.0,44,0.00,,,0.00,WUHU216DAVISVP2,2013-09-06 23:19:00,
2013-09-06 19:21:00,75.6,52.1,30.06,SE,133,0.0,4.0,44,0.00,,,0.00,WUHU216DAVISVP2,2013-09-06 23:21:00,
2013-09-06 19:22:00,75.6,53.4,30.06,SE,132,0.0,4.0,46,0.00,,,0.00,WUHU216DAVISVP2,2013-09-06 23:22:00,
2013-09-06 19:24:00,75.6,53.4,30.06,SE,132,0.0,4.0,46,0.00,,,0.00,WUHU216DAVISVP2,2013-09-06 23:24:00,
2013-09-06 19:27:00,75.7,52.8,30.05,SE,133,0.0,1.0,45,0.00,,,0.00,WUHU216DAVISVP2,2013-09-06 23:27:00,
2013-09-06 19:28:00,75.7,53.5,30.05,SE,133,0.0,1.0,46,0.00,,,0.00,WUHU216DAVISVP2,2013-09-06 23:28:00,
2013-09-06 19:29:00,75.7,53.5,30.05,SE,133,0.0,1.0,46,0.00,,,0.00,WUHU216DAVISVP2,2013-09-06 23:29:00,
2013-09-06 19:30:00,75.8,54.8,30.05,SE,133,0.0,1.0,48,0.00,,,0.00,WUHU216DAVISVP2,2013-09-06 23:30:00,
2013-09-06 19:31:00,75.8,53.6,30.05,SE,133,0.0,1.0,46,0.00,,,0.00,WUHU216DAVISVP2,2013-09-06 23:31:00,
2013-09-06 19:33:00,75.8,52.9,30.05,SE,133,0.0,1.0,45,0.00,,,0.00,WUHU216DAVISVP2,2013-09-06 23:33:00,
2013-09-06 19:34:00,75.8,52.9,30.05,SE,133,0.0,1.0,45,0.00,,,0.00,WUHU216DAVISVP2,2013-09-06 23:34:00,
2013-09-06 19:35:00,75.8,52.9,30.05,SE,133,0.0,1.0,45,0.00,,,0.00,WUHU216DAVISVP2,2013-09-06 23:35:00,
2013-09-06 19:36:00,75.7,54.1,30.05,SE,133,0.0,1.0,47,0.00,,,0.00,WUHU216DAVISVP2,2013-09-06 23:36:00,
2013-09-06 19:38:00,75.6,53.4,30.05,SE,133,0.0,1.0,46,0.00,,,0.00,WUHU216DAVISVP2,2013-09-06 23:38:00,
2013-09-06 19:39:00,75.6,53.4,30.05,SE,133,0.0,1.0,46,0.00,,,0.00,WUHU216DAVISVP2,2013-09-06 23:39:00,
2013-09-06 19:41:00,75.4,53.8,30.05,SE,133,0.0,1.0,47,0.00,,,0.00,WUHU216DAVISVP2,2013-09-06 23:41:00,
2013-09-06 19:42:00,75.2,53.0,30.05,SE,133,0.0,1.0,46,0.00,,,0.00,WUHU216DAVISVP2,2013-09-06 23:42:00,
2013-09-06 19:44:00,75.0,53.4,30.05,SE,133,0.0,1.0,47,0.00,,,0.00,WUHU216DAVISVP2,2013-09-06 23:44:00,
2013-09-06 19:45:00,74.8,53.2,30.06,SE,133,0.0,1.0,47,0.00,,,0.00,WUHU216DAVISVP2,2013-09-06 23:45:00,
2013-09-06 19:46:00,74.6,53.1,30.06,SE,133,0.0,1.0,47,0.00,,,0.00,WUHU216DAVISVP2,2013-09-06 23:46:00,
2013-09-06 19:48:00,74.3,52.8,30.06,SE,133,0.0,0.0,47,0.00,,,0.00,WUHU216DAVISVP2,2013-09-06 23:48:00,
2013-09-06 19:49:00,74.3,52.8,30.06,SE,133,0.0,0.0,47,0.00,,,0.00,WUHU216DAVISVP2,2013-09-06 23:49:00,
2013-09-06 19:50:00,73.8,53.5,30.05,SE,133,0.0,0.0,49,0.00,,,0.00,WUHU216DAVISVP2,2013-09-06 23:50:00,
2013-09-06 19:52:00,73.4,54.3,30.05,SE,133,0.0,0.0,51,0.00,,,0.00,WUHU216DAVISVP2,2013-09-06 23:52:00,
2013-09-06 19:54:00,72.9,53.8,30.06,SE,133,0.0,0.0,51,0.00,,,0.00,WUHU216DAVISVP2,2013-09-06 23:54:00,
2013-09-06 19:56:00,72.6,54.1,30.06,SE,133,0.0,0.0,52,0.00,,,0.00,WUHU216DAVISVP2,2013-09-06 23:56:00,
2013-09-06 19:58:00,72.1,53.6,30.06,SE,133,0.0,0.0,52,0.00,,,0.00,WUHU216DAVISVP2,2013-09-06 23:58:00,
2013-09-06 19:59:00,71.8,53.3,30.06,SE,133,0.0,0.0,52,0.00,,,0.00,WUHU216DAVISVP2,2013-09-06 23:59:00,
2013-09-06 20:01:00,71.5,53.0,30.06,SE,133,0.0,0.0,52,0.00,,,0.00,WUHU216DAVISVP2,2013-09-07 00:01:00,
2013-09-06 20:02:00,71.2,52.8,30.06,SE,133,0.0,1.0,52,0.00,,,0.00,WUHU216DAVISVP2,2013-09-07 00:02:00,
2013-09-06 20:04:00,70.9,53.0,30.06,SE,133,0.0,1.0,53,0.00,,,0.00,WUHU216DAVISVP2,2013-09-07 00:04:00,
2013-09-06 20:05:00,70.9,53.0,30.06,SE,133,0.0,1.0,53,0.00,,,0.00,WUHU216DAVISVP2,2013-09-07 00:05:00,
2013-09-06 20:07:00,70.5,53.2,30.05,SE,133,0.0,1.0,54,0.00,,,0.00,WUHU216DAVISVP2,2013-09-07 00:07:00,
2013-09-06 20:09:00,70.2,52.9,30.06,SE,133,0.0,1.0,54,0.00,,,0.00,WUHU216DAVISVP2,2013-09-07 00:09:00,
2013-09-06 20:10:00,70.2,52.9,30.06,SE,133,0.0,1.0,54,0.00,,,0.00,WUHU216DAVISVP2,2013-09-07 00:10:00,
2013-09-06 20:12:00,69.9,53.1,30.05,SE,133,0.0,1.0,55,0.00,,,0.00,WUHU216DAVISVP2,2013-09-07 00:12:00,
2013-09-06 20:15:00,69.4,54.6,30.05,SE,133,1.0,1.0,59,0.00,,,0.00,WUHU216DAVISVP2,2013-09-07 00:15:00,
2013-09-06 20:17:00,68.8,54.1,30.05,SE,133,0.0,1.0,59,0.00,,,0.00,WUHU216DAVISVP2,2013-09-07 00:17:00,
2013-09-06 20:18:00,68.5,53.8,30.05,SE,132,0.0,1.0,59,0.00,,,0.00,WUHU216DAVISVP2,2013-09-07 00:18:00,
2013-09-06 20:20:00,68.2,53.5,30.05,SE,132,0.0,1.0,59,0.00,,,0.00,WUHU216DAVISVP2,2013-09-07 00:20:00,
2013-09-06 20:21:00,68.0,53.8,30.05,SE,130,1.0,2.0,60,0.00,,,0.00,WUHU216DAVISVP2,2013-09-07 00:21:00,
2013-09-06 20:23:00,67.7,53.9,30.05,East,96,1.0,2.0,61,0.00,,,0.00,WUHU216DAVISVP2,2013-09-07 00:23:00,
2013-09-06 20:24:00,67.5,54.2,30.05,East,94,0.0,2.0,62,0.00,,,0.00,WUHU216DAVISVP2,2013-09-07 00:24:00,
2013-09-06 20:25:00,67.5,54.2,30.05,East,94,0.0,2.0,62,0.00,,,0.00,WUHU216DAVISVP2,2013-09-07 00:25:00,
2013-09-06 20:26:00,67.3,54.4,30.05,East,80,1.0,2.0,63,0.00,,,0.00,WUHU216DAVISVP2,2013-09-07 00:26:00,
2013-09-06 20:28:00,66.8,54.4,30.05,East,90,0.0,4.0,64,0.00,,,0.00,WUHU216DAVISVP2,2013-09-07 00:28:00,
2013-09-06 20:30:00,66.7,54.7,30.06,East,90,0.0,4.0,65,0.00,,,0.00,WUHU216DAVISVP2,2013-09-07 00:30:00,
2013-09-06 20:32:00,66.5,54.5,30.05,East,89,0.0,4.0,65,0.00,,,0.00,WUHU216DAVISVP2,2013-09-07 00:32:00,
2013-09-06 20:34:00,66.2,54.7,30.05,East,90,1.0,4.0,66,0.00,,,0.00,WUHU216DAVISVP2,2013-09-07 00:34:00,
2013-09-06 20:35:00,66.2,54.7,30.05,East,90,1.0,4.0,66,0.00,,,0.00,WUHU216DAVISVP2,2013-09-07 00:35:00,
2013-09-06 20:36:00,66.1,55.0,30.05,East,90,0.0,4.0,67,0.00,,,0.00,WUHU216DAVISVP2,2013-09-07 00:36:00,
2013-09-06 20:37:00,66.0,54.9,30.05,East,96,1.0,1.0,67,0.00,,,0.00,WUHU216DAVISVP2,2013-09-07 00:37:00,
2013-09-06 20:39:00,65.9,55.2,30.05,East,96,0.0,1.0,68,0.00,,,0.00,WUHU216DAVISVP2,2013-09-07 00:39:00,
2013-09-06 20:40:00,65.8,55.1,30.05,East,96,0.0,1.0,68,0.00,,,0.00,WUHU216DAVISVP2,2013-09-07 00:40:00,
2013-09-06 20:42:00,65.7,55.0,30.05,East,96,0.0,1.0,68,0.00,,,0.00,WUHU216DAVISVP2,2013-09-07 00:42:00,
2013-09-06 20:43:00,65.6,55.3,30.04,East,96,0.0,1.0,69,0.00,,,0.00,WUHU216DAVISVP2,2013-09-07 00:43:00,
2013-09-06 20:45:00,65.6,55.3,30.04,East,96,0.0,1.0,69,0.00,,,0.00,WUHU216DAVISVP2,2013-09-07 00:45:00,
2013-09-06 20:47:00,65.5,55.2,30.04,East,96,0.0,1.0,69,0.00,,,0.00,WUHU216DAVISVP2,2013-09-07 00:47:00,
2013-09-06 20:48:00,65.4,55.5,30.05,East,96,0.0,0.0,70,0.00,,,0.00,WUHU216DAVISVP2,2013-09-07 00:48:00,
2013-09-06 20:50:00,65.3,55.4,30.05,East,96,0.0,0.0,70,0.00,,,0.00,WUHU216DAVISVP2,2013-09-07 00:50:00,
2013-09-06 20:51:00,65.3,55.4,30.05,East,96,0.0,0.0,70,0.00,,,0.00,WUHU216DAVISVP2,2013-09-07 00:51:00,
2013-09-06 20:53:00,65.1,55.6,30.05,East,96,0.0,0.0,71,0.00,,,0.00,WUHU216DAVISVP2,2013-09-07 00:53:00,
2013-09-06 20:56:00,64.9,55.8,30.05,East,96,0.0,0.0,72,0.00,,,0.00,WUHU216DAVISVP2,2013-09-07 00:56:00,
2013-09-06 20:58:00,64.7,55.6,30.05,East,96,0.0,0.0,72,0.00,,,0.00,WUHU216DAVISVP2,2013-09-07 00:58:00,
2013-09-06 20:59:00,64.6,55.5,30.05,East,96,0.0,0.0,72,0.00,,,0.00,WUHU216DAVISVP2,2013-09-07 00:59:00,
2013-09-06 21:01:00,64.6,55.5,30.05,East,96,0.0,0.0,72,0.00,,,0.00,WUHU216DAVISVP2,2013-09-07 01:01:00,
2013-09-06 21:03:00,64.3,55.6,30.05,East,96,0.0,0.0,73,0.00,,,0.00,WUHU216DAVISVP2,2013-09-07 01:03:00,
2013-09-06 21:04:00,64.2,55.5,30.05,East,96,0.0,0.0,73,0.00,,,0.00,WUHU216DAVISVP2,2013-09-07 01:04:00,
2013-09-06 21:06:00,64.2,55.5,30.05,East,96,0.0,0.0,73,0.00,,,0.00,WUHU216DAVISVP2,2013-09-07 01:06:00,
2013-09-06 21:07:00,63.9,55.6,30.05,East,96,0.0,0.0,74,0.00,,,0.00,WUHU216DAVISVP2,2013-09-07 01:07:00,
2013-09-06 21:09:00,63.8,55.5,30.05,East,96,0.0,0.0,74,0.00,,,0.00,WUHU216DAVISVP2,2013-09-07 01:09:00,
2013-09-06 21:11:00,63.7,55.7,30.05,East,96,0.0,0.0,75,0.00,,,0.00,WUHU216DAVISVP2,2013-09-07 01:11:00,
2013-09-06 21:13:00,63.6,55.6,30.05,East,96,0.0,0.0,75,0.00,,,0.00,WUHU216DAVISVP2,2013-09-07 01:13:00,
2013-09-06 21:16:00,63.4,55.5,30.04,East,96,0.0,0.0,75,0.00,,,0.00,WUHU216DAVISVP2,2013-09-07 01:16:00,
2013-09-06 21:18:00,63.2,55.6,30.04,East,96,0.0,0.0,76,0.00,,,0.00,WUHU216DAVISVP2,2013-09-07 01:18:00,
2013-09-06 21:21:00,63.1,55.5,30.04,East,96,0.0,0.0,76,0.00,,,0.00,WUHU216DAVISVP2,2013-09-07 01:21:00,
2013-09-06 21:22:00,63.0,55.4,30.04,East,96,0.0,0.0,76,0.00,,,0.00,WUHU216DAVISVP2,2013-09-07 01:22:00,
2013-09-06 21:24:00,62.9,55.3,30.04,East,96,0.0,0.0,76,0.00,,,0.00,WUHU216DAVISVP2,2013-09-07 01:24:00,
2013-09-06 21:26:00,62.8,55.6,30.04,East,96,0.0,0.0,77,0.00,,,0.00,WUHU216DAVISVP2,2013-09-07 01:26:00,
2013-09-06 21:28:00,62.7,55.5,30.04,East,96,0.0,0.0,77,0.00,,,0.00,WUHU216DAVISVP2,2013-09-07 01:28:00,
2013-09-06 21:30:00,62.6,55.4,30.04,East,96,0.0,0.0,77,0.00,,,0.00,WUHU216DAVISVP2,2013-09-07 01:30:00,
2013-09-06 21:31:00,62.6,55.4,30.04,East,96,0.0,0.0,77,0.00,,,0.00,WUHU216DAVISVP2,2013-09-07 01:31:00,
2013-09-06 21:33:00,62.4,55.2,30.03,East,96,0.0,0.0,77,0.00,,,0.00,WUHU216DAVISVP2,2013-09-07 01:33:00,
2013-09-06 21:36:00,62.3,55.4,30.03,East,96,0.0,0.0,78,0.00,,,0.00,WUHU216DAVISVP2,2013-09-07 01:36:00,
2013-09-06 21:37:00,62.2,55.3,30.04,East,96,0.0,0.0,78,0.00,,,0.00,WUHU216DAVISVP2,2013-09-07 01:37:00,
2013-09-06 21:39:00,62.2,55.3,30.04,East,96,0.0,0.0,78,0.00,,,0.00,WUHU216DAVISVP2,2013-09-07 01:39:00,
2013-09-06 21:40:00,62.1,55.2,30.04,East,96,0.0,0.0,78,0.00,,,0.00,WUHU216DAVISVP2,2013-09-07 01:40:00,
2013-09-06 21:42:00,62.1,55.2,30.04,East,96,0.0,0.0,78,0.00,,,0.00,WUHU216DAVISVP2,2013-09-07 01:42:00,
2013-09-06 21:44:00,62.0,55.5,30.04,East,96,0.0,0.0,79,0.00,,,0.00,WUHU216DAVISVP2,2013-09-07 01:44:00,
2013-09-06 21:47:00,62.0,55.5,30.04,East,96,0.0,0.0,79,0.00,,,0.00,WUHU216DAVISVP2,2013-09-07 01:47:00,
2013-09-06 21:48:00,61.9,55.4,30.04,East,96,0.0,0.0,79,0.00,,,0.00,WUHU216DAVISVP2,2013-09-07 01:48:00,
2013-09-06 21:51:00,61.8,55.3,30.04,East,96,0.0,0.0,79,0.00,,,0.00,WUHU216DAVISVP2,2013-09-07 01:51:00,
2013-09-06 21:52:00,61.8,55.3,30.04,East,96,0.0,0.0,79,0.00,,,0.00,WUHU216DAVISVP2,2013-09-07 01:52:00,
2013-09-06 21:53:00,61.7,55.2,30.04,East,96,0.0,0.0,79,0.00,,,0.00,WUHU216DAVISVP2,2013-09-07 01:53:00,
2013-09-06 21:55:00,61.6,55.1,30.04,East,96,0.0,0.0,79,0.00,,,0.00,WUHU216DAVISVP2,2013-09-07 01:55:00,
2013-09-06 21:57:00,61.6,55.1,30.04,East,96,0.0,0.0,79,0.00,,,0.00,WUHU216DAVISVP2,2013-09-07 01:57:00,
2013-09-06 21:59:00,61.5,55.0,30.04,East,96,0.0,0.0,79,0.00,,,0.00,WUHU216DAVISVP2,2013-09-07 01:59:00,
2013-09-06 22:01:00,61.3,54.8,30.04,East,96,0.0,0.0,79,0.00,,,0.00,WUHU216DAVISVP2,2013-09-07 02:01:00,
2013-09-06 22:02:00,61.3,54.8,30.04,East,96,0.0,0.0,79,0.00,,,0.00,WUHU216DAVISVP2,2013-09-07 02:02:00,
2013-09-06 22:04:00,61.2,55.0,30.04,East,96,0.0,0.0,80,0.00,,,0.00,WUHU216DAVISVP2,2013-09-07 02:04:00,
2013-09-06 22:05:00,61.1,54.9,30.04,East,96,0.0,0.0,80,0.00,,,0.00,WUHU216DAVISVP2,2013-09-07 02:05:00,
2013-09-06 22:07:00,61.0,54.8,30.04,East,96,0.0,0.0,80,0.00,,,0.00,WUHU216DAVISVP2,2013-09-07 02:07:00,
2013-09-06 22:11:00,60.8,55.0,30.04,East,96,0.0,0.0,81,0.00,,,0.00,WUHU216DAVISVP2,2013-09-07 02:11:00,
2013-09-06 22:12:00,60.8,55.0,30.04,East,96,0.0,0.0,81,0.00,,,0.00,WUHU216DAVISVP2,2013-09-07 02:12:00,
2013-09-06 22:16:00,60.5,54.7,30.03,East,96,0.0,0.0,81,0.00,,,0.00,WUHU216DAVISVP2,2013-09-07 02:16:00,
2013-09-06 22:17:00,60.4,54.6,30.04,East,96,0.0,0.0,81,0.00,,,0.00,WUHU216DAVISVP2,2013-09-07 02:17:00,
2013-09-06 22:18:00,60.4,54.6,30.03,East,96,0.0,0.0,81,0.00,,,0.00,WUHU216DAVISVP2,2013-09-07 02:18:00,
2013-09-06 22:21:00,60.2,54.7,30.03,East,96,0.0,0.0,82,0.00,,,0.00,WUHU216DAVISVP2,2013-09-07 02:21:00,
2013-09-06 22:22:00,60.2,54.7,30.03,East,96,0.0,0.0,82,0.00,,,0.00,WUHU216DAVISVP2,2013-09-07 02:22:00,
2013-09-06 22:23:00,60.1,54.6,30.03,East,96,0.0,0.0,82,0.00,,,0.00,WUHU216DAVISVP2,2013-09-07 02:23:00,
2013-09-06 22:24:00,60.0,54.5,30.04,East,96,0.0,0.0,82,0.00,,,0.00,WUHU216DAVISVP2,2013-09-07 02:24:00,
2013-09-06 22:26:00,60.0,54.5,30.04,East,96,0.0,0.0,82,0.00,,,0.00,WUHU216DAVISVP2,2013-09-07 02:26:00,
2013-09-06 22:28:00,60.0,54.8,30.03,East,96,0.0,0.0,83,0.00,,,0.00,WUHU216DAVISVP2,2013-09-07 02:28:00,
2013-09-06 22:29:00,59.9,54.8,30.03,East,96,0.0,0.0,83,0.00,,,0.00,WUHU216DAVISVP2,2013-09-07 02:29:00,
2013-09-06 22:31:00,59.8,54.7,30.03,East,96,0.0,0.0,83,0.00,,,0.00,WUHU216DAVISVP2,2013-09-07 02:31:00,
2013-09-06 22:33:00,59.7,54.6,30.03,East,96,0.0,0.0,83,0.00,,,0.00,WUHU216DAVISVP2,2013-09-07 02:33:00,
2013-09-06 22:36:00,59.5,54.4,30.04,East,96,0.0,0.0,83,0.00,,,0.00,WUHU216DAVISVP2,2013-09-07 02:36:00,
2013-09-06 22:38:00,59.5,54.4,30.04,East,96,0.0,0.0,83,0.00,,,0.00,WUHU216DAVISVP2,2013-09-07 02:38:00,
2013-09-06 22:41:00,59.3,54.2,30.03,East,96,0.0,0.0,83,0.00,,,0.00,WUHU216DAVISVP2,2013-09-07 02:41:00,
2013-09-06 22:43:00,59.2,54.4,30.04,East,96,0.0,0.0,84,0.00,,,0.00,WUHU216DAVISVP2,2013-09-07 02:43:00,
2013-09-06 22:46:00,59.1,54.3,30.03,East,96,0.0,0.0,84,0.00,,,0.00,WUHU216DAVISVP2,2013-09-07 02:46:00,
2013-09-06 22:48:00,59.1,54.3,30.03,East,96,0.0,0.0,84,0.00,,,0.00,WUHU216DAVISVP2,2013-09-07 02:48:00,
2013-09-06 22:49:00,58.9,54.1,30.03,East,96,0.0,0.0,84,0.00,,,0.00,WUHU216DAVISVP2,2013-09-07 02:49:00,
2013-09-06 22:51:00,58.8,54.0,30.03,East,96,0.0,0.0,84,0.00,,,0.00,WUHU216DAVISVP2,2013-09-07 02:51:00,
2013-09-06 22:52:00,58.7,54.2,30.03,East,96,0.0,0.0,85,0.00,,,0.00,WUHU216DAVISVP2,2013-09-07 02:52:00,
2013-09-06 22:53:00,58.7,54.2,30.03,East,96,0.0,0.0,85,0.00,,,0.00,WUHU216DAVISVP2,2013-09-07 02:53:00,
2013-09-06 22:56:00,58.5,54.0,30.04,East,96,0.0,0.0,85,0.00,,,0.00,WUHU216DAVISVP2,2013-09-07 02:56:00,
2013-09-06 22:58:00,58.4,53.9,30.03,East,96,0.0,0.0,85,0.00,,,0.00,WUHU216DAVISVP2,2013-09-07 02:58:00,
2013-09-06 23:00:00,58.2,54.0,30.03,East,96,0.0,0.0,86,0.00,,,0.00,WUHU216DAVISVP2,2013-09-07 03:00:00,
2013-09-06 23:01:00,58.2,54.0,30.03,East,96,0.0,0.0,86,0.00,,,0.00,WUHU216DAVISVP2,2013-09-07 03:01:00,
2013-09-06 23:03:00,58.0,53.8,30.03,East,96,0.0,0.0,86,0.00,,,0.00,WUHU216DAVISVP2,2013-09-07 03:03:00,
2013-09-06 23:05:00,58.0,53.8,30.03,East,96,0.0,0.0,86,0.00,,,0.00,WUHU216DAVISVP2,2013-09-07 03:05:00,
2013-09-06 23:06:00,57.8,53.6,30.03,East,96,0.0,0.0,86,0.00,,,0.00,WUHU216DAVISVP2,2013-09-07 03:06:00,
2013-09-06 23:08:00,57.7,53.5,30.03,East,96,0.0,0.0,86,0.00,,,0.00,WUHU216DAVISVP2,2013-09-07 03:08:00,
2013-09-06 23:10:00,57.6,53.4,30.03,East,96,0.0,0.0,86,0.00,,,0.00,WUHU216DAVISVP2,2013-09-07 03:10:00,
2013-09-06 23:12:00,57.5,53.3,30.03,East,96,0.0,0.0,86,0.00,,,0.00,WUHU216DAVISVP2,2013-09-07 03:12:00,
2013-09-06 23:13:00,57.5,53.6,30.03,East,96,0.0,0.0,87,0.00,,,0.00,WUHU216DAVISVP2,2013-09-07 03:13:00,
2013-09-06 23:15:00,57.4,53.5,30.03,East,96,0.0,0.0,87,0.00,,,0.00,WUHU216DAVISVP2,2013-09-07 03:15:00,
2013-09-06 23:16:00,57.3,53.5,30.03,East,96,0.0,0.0,87,0.00,,,0.00,WUHU216DAVISVP2,2013-09-07 03:16:00,
2013-09-06 23:18:00,57.2,53.4,30.03,East,96,0.0,0.0,87,0.00,,,0.00,WUHU216DAVISVP2,2013-09-07 03:18:00,
2013-09-06 23:19:00,57.2,53.4,30.03,East,96,0.0,0.0,87,0.00,,,0.00,WUHU216DAVISVP2,2013-09-07 03:19:00,
2013-09-06 23:21:00,57.1,53.3,30.02,East,96,0.0,0.0,87,0.00,,,0.00,WUHU216DAVISVP2,2013-09-07 03:21:00,
2013-09-06 23:24:00,57.1,53.3,30.03,East,96,0.0,0.0,87,0.00,,,0.00,WUHU216DAVISVP2,2013-09-07 03:24:00,
2013-09-06 23:27:00,57.0,53.5,30.03,East,96,0.0,0.0,88,0.00,,,0.00,WUHU216DAVISVP2,2013-09-07 03:27:00,
2013-09-06 23:28:00,57.0,53.5,30.03,East,96,0.0,0.0,88,0.00,,,0.00,WUHU216DAVISVP2,2013-09-07 03:28:00,
2013-09-06 23:29:00,57.0,53.5,30.03,East,96,0.0,0.0,88,0.00,,,0.00,WUHU216DAVISVP2,2013-09-07 03:29:00,
2013-09-06 23:30:00,57.0,53.5,30.03,East,96,0.0,0.0,88,0.00,,,0.00,WUHU216DAVISVP2,2013-09-07 03:30:00,
2013-09-06 23:31:00,56.9,53.4,30.03,East,96,0.0,0.0,88,0.00,,,0.00,WUHU216DAVISVP2,2013-09-07 03:31:00,
2013-09-06 23:34:00,56.9,53.4,30.03,East,96,0.0,0.0,88,0.00,,,0.00,WUHU216DAVISVP2,2013-09-07 03:34:00,
2013-09-06 23:36:00,56.9,53.4,30.02,East,96,0.0,0.0,88,0.00,,,0.00,WUHU216DAVISVP2,2013-09-07 03:36:00,
2013-09-06 23:37:00,56.8,53.3,30.02,East,96,0.0,0.0,88,0.00,,,0.00,WUHU216DAVISVP2,2013-09-07 03:37:00,
2013-09-06 23:39:00,56.8,53.3,30.02,East,96,0.0,0.0,88,0.00,,,0.00,WUHU216DAVISVP2,2013-09-07 03:39:00,
2013-09-06 23:42:00,56.8,53.3,30.02,East,96,0.0,0.0,88,0.00,,,0.00,WUHU216DAVISVP2,2013-09-07 03:42:00,
2013-09-06 23:44:00,56.7,53.2,30.02,East,96,0.0,0.0,88,0.00,,,0.00,WUHU216DAVISVP2,2013-09-07 03:44:00,
2013-09-06 23:45:00,56.6,53.1,30.02,East,96,0.0,0.0,88,0.00,,,0.00,WUHU216DAVISVP2,2013-09-07 03:45:00,
2013-09-06 23:47:00,56.6,53.1,30.02,East,96,0.0,0.0,88,0.00,,,0.00,WUHU216DAVISVP2,2013-09-07 03:47:00,
2013-09-06 23:49:00,56.6,53.1,30.02,East,96,0.0,0.0,88,0.00,,,0.00,WUHU216DAVISVP2,2013-09-07 03:49:00,
2013-09-06 23:50:00,56.6,52.8,30.02,East,96,0.0,0.0,87,0.00,,,0.00,WUHU216DAVISVP2,2013-09-07 03:50:00,
2013-09-06 23:51:00,56.5,52.7,30.02,East,96,0.0,0.0,87,0.00,,,0.00,WUHU216DAVISVP2,2013-09-07 03:51:00,
2013-09-06 23:54:00,56.6,52.8,30.02,East,96,0.0,0.0,87,0.00,,,0.00,WUHU216DAVISVP2,2013-09-07 03:54:00,
2013-09-06 23:55:00,56.7,52.9,30.02,East,96,0.0,0.0,87,0.00,,,0.00,WUHU216DAVISVP2,2013-09-07 03:55:00,
2013-09-06 23:56:00,56.7,52.9,30.01,East,96,0.0,0.0,87,0.00,,,0.00,WUHU216DAVISVP2,2013-09-07 03:56:00,
2013-09-06 23:58:00,56.6,52.5,30.01,East,96,0.0,0.0,86,0.00,,,0.00,WUHU216DAVISVP2,2013-09-07 03:58:00,
2013-09-06 23:59:00,56.6,52.5,30.01,East,96,0.0,0.0,86,0.00,,,0.00,WUHU216DAVISVP2,2013-09-07 03:59:00,